Wetterdaten: Freitag, 08.03.2019
Datum Zeit Temp. Aussen Temp. o. S. +5cm Feuchte Auss Luftdruck Regen Sonnenschein Regendauer Solar Windben Empfang
08.03.2019 00:00 8,3 C 7,2 C 6,7 C 77 % 998,2 hPa 0,0 l/m 0 min 2 min 0 W/m 32,2 km/h (5 Bft) 93,62 %
08.03.2019 00:02 8,3 C 7,2 C 6,1 C 77 % 998,2 hPa 0,0 l/m 0 min 2 min 0 W/m 6,4 km/h (2 Bft) 5,00 %
08.03.2019 00:04 8,3 C 6,7 C 6,1 C 79 % 998,2 hPa 0,0 l/m 0 min 2 min 0 W/m 29,0 km/h (5 Bft) 95,45 %
08.03.2019 00:07 8,2 C 6,7 C 6,1 C 79 % 998,2 hPa 0,0 l/m 0 min 3 min 0 W/m 22,5 km/h (4 Bft) 97,14 %
08.03.2019 00:08 8,2 C 6,7 C 6,1 C 79 % 998,2 hPa 0,0 l/m 0 min 1 min 0 W/m 12,9 km/h (3 Bft) 95,83 %
08.03.2019 00:10 8,2 C 6,7 C 6,1 C 80 % 998,2 hPa 0,0 l/m 0 min 2 min 0 W/m 25,7 km/h (4 Bft) 93,33 %
08.03.2019 00:12 8,2 C 7,2 C 6,7 C 80 % 998,1 hPa 0,0 l/m 0 min 2 min 0 W/m 25,7 km/h (4 Bft) 93,62 %
08.03.2019 00:14 8,2 C 7,2 C 6,7 C 80 % 998,2 hPa 0,0 l/m 0 min 2 min 0 W/m 16,1 km/h (3 Bft) 95,74 %
08.03.2019 00:16 8,1 C 7,2 C 6,7 C 80 % 998,2 hPa 0,0 l/m 0 min 2 min 0 W/m 32,2 km/h (5 Bft) 95,74 %
08.03.2019 00:18 8,1 C 7,2 C 6,7 C 79 % 998,1 hPa 0,0 l/m 0 min 2 min 0 W/m 29,0 km/h (5 Bft) 93,62 %
08.03.2019 00:20 8,1 C 7,2 C 7,2 C 80 % 998,1 hPa 0,0 l/m 0 min 2 min 0 W/m 22,5 km/h (4 Bft) 95,65 %
08.03.2019 00:22 8,1 C 7,8 C 7,2 C 79 % 998,3 hPa 0,0 l/m 0 min 2 min 0 W/m 41,8 km/h (6 Bft) 93,62 %
08.03.2019 00:24 8,1 C 7,8 C 7,2 C 79 % 998,2 hPa 0,0 l/m 0 min 2 min 0 W/m 54,7 km/h (7 Bft) 95,74 %
08.03.2019 00:26 8,2 C 7,8 C 7,2 C 79 % 998,2 hPa 0,0 l/m 0 min 0 min 0 W/m 41,8 km/h (6 Bft) 95,74 %
08.03.2019 00:28 8,2 C 7,8 C 7,2 C 79 % 998,3 hPa 0,0 l/m 0 min 0 min 0 W/m 41,8 km/h (6 Bft) 95,74 %
08.03.2019 00:30 8,2 C 7,8 C 7,2 C 79 % 998,2 hPa 0,0 l/m 0 min 0 min 0 W/m 32,2 km/h (5 Bft) 95,74 %
08.03.2019 00:32 8,2 C 7,8 C 7,2 C 79 % 998,2 hPa 0,0 l/m 0 min 0 min 0 W/m 29,0 km/h (5 Bft) 93,48 %
08.03.2019 00:34 8,2 C 7,8 C 7,2 C 79 % 998,3 hPa 0,0 l/m 0 min 0 min 0 W/m 19,3 km/h (3 Bft) 95,74 %
08.03.2019 00:36 8,2 C 7,8 C 7,2 C 79 % 998,2 hPa 0,0 l/m 0 min 0 min 0 W/m 19,3 km/h (3 Bft) 95,74 %
08.03.2019 00:38 8,2 C 7,8 C 7,2 C 79 % 998,2 hPa 0,0 l/m 0 min 0 min 0 W/m 32,2 km/h (5 Bft) 97,87 %
08.03.2019 00:40 8,2 C 7,8 C 7,2 C 79 % 998,2 hPa 0,0 l/m 0 min 0 min 0 W/m 25,7 km/h (4 Bft) 93,62 %
08.03.2019 00:42 8,2 C 7,8 C 7,2 C 79 % 998,3 hPa 0,0 l/m 0 min 0 min 0 W/m 35,4 km/h (5 Bft) 97,87 %
08.03.2019 00:44 8,2 C 7,2 C 7,2 C 79 % 998,3 hPa 0,0 l/m 0 min 0 min 0 W/m 29,0 km/h (5 Bft) 95,65 %
08.03.2019 00:46 8,2 C 7,8 C 7,2 C 79 % 998,5 hPa 0,0 l/m 0 min 0 min 0 W/m 35,4 km/h (5 Bft) 97,87 %
08.03.2019 00:48 8,2 C 7,8 C 7,2 C 79 % 998,3 hPa 0,0 l/m 0 min 0 min 0 W/m 54,7 km/h (7 Bft) 97,87 %
08.03.2019 00:50 8,2 C 7,8 C 7,2 C 79 % 998,4 hPa 0,0 l/m 0 min 0 min 0 W/m 32,2 km/h (5 Bft) 95,74 %
08.03.2019 00:52 8,2 C 7,8 C 7,2 C 80 % 998,6 hPa 0,0 l/m 0 min 0 min 0 W/m 45,1 km/h (6 Bft) 97,87 %
08.03.2019 00:54 8,2 C 7,8 C 7,2 C 80 % 998,4 hPa 0,0 l/m 0 min 0 min 0 W/m 19,3 km/h (3 Bft) 97,87 %
08.03.2019 00:56 8,2 C 7,8 C 7,2 C 80 % 998,5 hPa 0,0 l/m 0 min 0 min 0 W/m 48,3 km/h (6 Bft) 95,65 %
08.03.2019 00:58 8,2 C 7,8 C 7,2 C 80 % 998,7 hPa 0,0 l/m 0 min 0 min 0 W/m 32,2 km/h (5 Bft) 97,87 %
08.03.2019 01:00 8,2 C 7,8 C 7,2 C 80 % 998,7 hPa 0,0 l/m 0 min 0 min 0 W/m 29,0 km/h (5 Bft) 95,74 %
08.03.2019 01:02 8,2 C 7,8 C 7,2 C 80 % 998,4 hPa 0,0 l/m 0 min 0 min 0 W/m 29,0 km/h (5 Bft) 100,00 %
08.03.2019 01:04 8,2 C 7,8 C 7,2 C 80 % 998,5 hPa 0,0 l/m 0 min 0 min 0 W/m 32,2 km/h (5 Bft) 100,00 %
08.03.2019 01:06 8,3 C 7,2 C 6,7 C 80 % 998,8 hPa 0,0 l/m 0 min 2 min 0 W/m 25,7 km/h (4 Bft) 100,00 %
08.03.2019 01:08 8,3 C 7,2 C 6,7 C 80 % 998,6 hPa 0,0 l/m 0 min 2 min 0 W/m 29,0 km/h (5 Bft) 100,00 %
08.03.2019 01:10 8,3 C 6,7 C 6,1 C 81 % 998,7 hPa 0,0 l/m 0 min 2 min 0 W/m 29,0 km/h (5 Bft) 100,00 %
08.03.2019 01:12 8,3 C 6,7 C 6,1 C 81 % 998,7 hPa 0,0 l/m 0 min 2 min 0 W/m 19,3 km/h (3 Bft) 100,00 %
08.03.2019 01:14 8,2 C 6,7 C 5,6 C 81 % 998,7 hPa 0,0 l/m 0 min 2 min 0 W/m 22,5 km/h (4 Bft) 100,00 %
08.03.2019 01:16 8,2 C 6,7 C 5,6 C 82 % 998,9 hPa 0,0 l/m 0 min 2 min 0 W/m 35,4 km/h (5 Bft) 97,87 %
08.03.2019 01:18 8,2 C 6,7 C 5,6 C 82 % 998,9 hPa 0,0 l/m 0 min 2 min 0 W/m 29,0 km/h (5 Bft) 100,00 %
08.03.2019 01:20 8,2 C 6,7 C 5,6 C 82 % 998,9 hPa 0,0 l/m 0 min 2 min 0 W/m 29,0 km/h (5 Bft) 97,83 %
08.03.2019 01:22 8,1 C 6,7 C 6,1 C 83 % 999,0 hPa 0,0 l/m 0 min 2 min 0 W/m 32,2 km/h (5 Bft) 100,00 %
08.03.2019 01:24 8,1 C 6,7 C 6,1 C 83 % 999,1 hPa 0,0 l/m 0 min 2 min 0 W/m 32,2 km/h (5 Bft) 100,00 %
08.03.2019 01:26 8,0 C 7,2 C 6,7 C 83 % 999,3 hPa 0,0 l/m 0 min 2 min 0 W/m 38,6 km/h (5 Bft) 100,00 %
08.03.2019 01:28 8,0 C 7,2 C 6,7 C 83 % 999,0 hPa 0,0 l/m 0 min 2 min 0 W/m 35,4 km/h (5 Bft) 100,00 %
08.03.2019 01:30 8,0 C 7,2 C 6,7 C 83 % 999,4 hPa 0,0 l/m 0 min 2 min 0 W/m 29,0 km/h (5 Bft) 100,00 %
08.03.2019 01:32 8,0 C 7,2 C 6,7 C 83 % 999,2 hPa 0,0 l/m 0 min 2 min 0 W/m 22,5 km/h (4 Bft) 97,87 %
08.03.2019 01:34 8,0 C 7,2 C 6,7 C 83 % 999,0 hPa 0,0 l/m 0 min 2 min 0 W/m 32,2 km/h (5 Bft) 100,00 %
08.03.2019 01:36 8,0 C 7,2 C 6,7 C 83 % 999,0 hPa 0,0 l/m 0 min 2 min 0 W/m 25,7 km/h (4 Bft) 100,00 %
08.03.2019 01:38 8,0 C 7,2 C 6,7 C 83 % 999,1 hPa 0,0 l/m 0 min 2 min 0 W/m 41,8 km/h (6 Bft) 100,00 %
08.03.2019 01:40 8,0 C 7,2 C 6,7 C 83 % 999,2 hPa 0,0 l/m 0 min 2 min 0 W/m 16,1 km/h (3 Bft) 100,00 %
08.03.2019 01:42 8,1 C 7,2 C 6,7 C 83 % 999,3 hPa 0,0 l/m 0 min 2 min 0 W/m 29,0 km/h (5 Bft) 100,00 %
08.03.2019 01:44 8,1 C 7,2 C 6,7 C 83 % 999,3 hPa 0,0 l/m 0 min 2 min 0 W/m 35,4 km/h (5 Bft) 100,00 %
08.03.2019 01:46 8,1 C 7,2 C 6,7 C 83 % 999,2 hPa 0,0 l/m 0 min 2 min 0 W/m 16,1 km/h (3 Bft) 100,00 %
08.03.2019 01:48 8,1 C 7,2 C 6,7 C 83 % 999,4 hPa 0,0 l/m 0 min 2 min 0 W/m 32,2 km/h (5 Bft) 100,00 %
08.03.2019 01:50 8,1 C 7,2 C 6,7 C 83 % 999,3 hPa 0,0 l/m 0 min 2 min 0 W/m 32,2 km/h (5 Bft) 100,00 %
08.03.2019 01:52 8,1 C 6,7 C 6,1 C 83 % 999,4 hPa 0,0 l/m 0 min 2 min 0 W/m 25,7 km/h (4 Bft) 100,00 %
08.03.2019 01:54 8,1 C 6,7 C 6,1 C 83 % 999,5 hPa 0,0 l/m 0 min 2 min 0 W/m 29,0 km/h (5 Bft) 100,00 %
08.03.2019 01:56 8,1 C 7,2 C 6,7 C 83 % 999,4 hPa 0,0 l/m 0 min 2 min 0 W/m 19,3 km/h (3 Bft) 100,00 %
08.03.2019 01:58 8,1 C 7,2 C 6,1 C 83 % 999,8 hPa 0,0 l/m 0 min 2 min 0 W/m 45,1 km/h (6 Bft) 97,87 %
08.03.2019 02:00 8,1 C 7,2 C 6,1 C 83 % 999,5 hPa 0,0 l/m 0 min 2 min 0 W/m 29,0 km/h (5 Bft) 100,00 %
08.03.2019 02:02 8,1 C 6,7 C 6,1 C 83 % 999,6 hPa 0,0 l/m 0 min 2 min 0 W/m 41,8 km/h (6 Bft) 100,00 %
08.03.2019 02:04 8,1 C 6,7 C 6,1 C 84 % 999,6 hPa 0,0 l/m 0 min 2 min 0 W/m 22,5 km/h (4 Bft) 97,87 %
08.03.2019 02:06 8,0 C 6,7 C 5,6 C 84 % 999,7 hPa 0,0 l/m 0 min 2 min 0 W/m 19,3 km/h (3 Bft) 93,62 %
08.03.2019 02:08 8,0 C 6,7 C 6,1 C 84 % 999,6 hPa 0,0 l/m 0 min 2 min 0 W/m 32,2 km/h (5 Bft) 93,48 %
08.03.2019 02:10 8,0 C 6,7 C 6,1 C 84 % 999,8 hPa 0,0 l/m 0 min 2 min 0 W/m 25,7 km/h (4 Bft) 97,87 %
08.03.2019 02:12 7,9 C 6,7 C 6,1 C 84 % 999,7 hPa 0,0 l/m 0 min 2 min 0 W/m 29,0 km/h (5 Bft) 97,87 %
08.03.2019 02:14 7,9 C 6,7 C 6,1 C 85 % 999,9 hPa 0,0 l/m 0 min 2 min 0 W/m 25,7 km/h (4 Bft) 97,87 %
08.03.2019 02:16 7,9 C 6,1 C 6,1 C 85 % 1000,0 hPa 0,0 l/m 0 min 2 min 0 W/m 19,3 km/h (3 Bft) 97,87 %
08.03.2019 02:18 7,9 C 6,1 C 5,6 C 85 % 1000,1 hPa 0,0 l/m 0 min 2 min 0 W/m 25,7 km/h (4 Bft) 97,87 %
08.03.2019 02:20 7,9 C 6,1 C 5,6 C 85 % 999,9 hPa 0,0 l/m 0 min 2 min 0 W/m 29,0 km/h (5 Bft) 97,83 %
08.03.2019 02:22 7,9 C 6,1 C 5,6 C 85 % 1000,1 hPa 0,0 l/m 0 min 2 min 0 W/m 19,3 km/h (3 Bft) 97,87 %
08.03.2019 02:24 7,8 C 6,1 C 5,6 C 86 % 1000,1 hPa 0,0 l/m 0 min 2 min 0 W/m 25,7 km/h (4 Bft) 95,74 %
08.03.2019 02:26 7,8 C 5,6 C 5,6 C 86 % 1000,3 hPa 0,2 l/m 0 min 2 min 0 W/m 32,2 km/h (5 Bft) 95,74 %
08.03.2019 02:28 7,8 C 5,6 C 5,6 C 86 % 1000,2 hPa 0,0 l/m 0 min 2 min 0 W/m 22,5 km/h (4 Bft) 97,87 %
08.03.2019 02:30 7,7 C 5,6 C 5,0 C 86 % 1000,2 hPa 0,0 l/m 0 min 2 min 0 W/m 25,7 km/h (4 Bft) 97,87 %
08.03.2019 02:32 7,7 C 5,6 C 5,0 C 87 % 1000,1 hPa 0,0 l/m 0 min 2 min 0 W/m 16,1 km/h (3 Bft) 97,83 %
08.03.2019 02:34 7,7 C 5,6 C 5,0 C 87 % 1000,3 hPa 0,0 l/m 0 min 2 min 0 W/m 29,0 km/h (5 Bft) 97,87 %
08.03.2019 02:36 7,6 C 5,6 C 5,0 C 87 % 1000,3 hPa 0,0 l/m 0 min 2 min 0 W/m 22,5 km/h (4 Bft) 97,87 %
08.03.2019 02:38 7,6 C 5,6 C 5,0 C 87 % 1000,3 hPa 0,0 l/m 0 min 2 min 0 W/m 16,1 km/h (3 Bft) 97,87 %
08.03.2019 02:40 7,6 C 5,6 C 5,0 C 87 % 1000,3 hPa 0,0 l/m 0 min 2 min 0 W/m 32,2 km/h (5 Bft) 97,87 %
08.03.2019 02:42 7,6 C 5,6 C 5,0 C 88 % 1000,3 hPa 0,0 l/m 0 min 2 min 0 W/m 22,5 km/h (4 Bft) 91,49 %
08.03.2019 02:44 7,5 C 5,6 C 5,0 C 88 % 1000,6 hPa 0,0 l/m 0 min 2 min 0 W/m 29,0 km/h (5 Bft) 95,65 %
08.03.2019 02:46 7,5 C 5,6 C 5,0 C 88 % 1000,3 hPa 0,0 l/m 0 min 2 min 0 W/m 22,5 km/h (4 Bft) 93,62 %
08.03.2019 02:48 7,4 C 5,6 C 5,0 C 88 % 1000,5 hPa 0,0 l/m 0 min 2 min 0 W/m 19,3 km/h (3 Bft) 95,74 %
08.03.2019 02:50 7,4 C 5,6 C 5,0 C 88 % 1000,3 hPa 0,0 l/m 0 min 2 min 0 W/m 22,5 km/h (4 Bft) 97,87 %
08.03.2019 02:52 7,4 C 5,6 C 5,0 C 88 % 1000,4 hPa 0,0 l/m 0 min 2 min 0 W/m 19,3 km/h (3 Bft) 100,00 %
08.03.2019 02:54 7,4 C 5,6 C 5,0 C 88 % 1000,4 hPa 0,0 l/m 0 min 2 min 0 W/m 29,0 km/h (5 Bft) 97,87 %
08.03.2019 02:56 7,4 C 5,6 C 5,0 C 89 % 1000,3 hPa 0,0 l/m 0 min 2 min 0 W/m 19,3 km/h (3 Bft) 95,65 %
08.03.2019 02:58 7,4 C 5,6 C 5,0 C 89 % 1000,4 hPa 0,0 l/m 0 min 2 min 0 W/m 22,5 km/h (4 Bft) 97,87 %
08.03.2019 03:00 7,4 C 5,6 C 5,0 C 89 % 1000,5 hPa 0,2 l/m 0 min 2 min 0 W/m 16,1 km/h (3 Bft) 100,00 %
08.03.2019 03:02 7,3 C 5,6 C 5,0 C 89 % 1000,6 hPa 0,0 l/m 0 min 2 min 0 W/m 32,2 km/h (5 Bft) 95,74 %
08.03.2019 03:04 7,3 C 5,6 C 5,0 C 89 % 1000,7 hPa 0,0 l/m 0 min 2 min 0 W/m 22,5 km/h (4 Bft) 97,87 %
08.03.2019 03:06 7,3 C 5,6 C 5,0 C 89 % 1000,7 hPa 0,0 l/m 0 min 2 min 0 W/m 29,0 km/h (5 Bft) 95,74 %
08.03.2019 03:08 7,3 C 5,6 C 5,0 C 89 % 1000,6 hPa 0,0 l/m 0 min 2 min 0 W/m 22,5 km/h (4 Bft) 97,83 %
08.03.2019 03:10 7,3 C 5,6 C 5,0 C 89 % 1000,7 hPa 0,0 l/m 0 min 2 min 0 W/m 22,5 km/h (4 Bft) 97,87 %
08.03.2019 03:12 7,3 C 5,6 C 5,0 C 89 % 1000,6 hPa 0,0 l/m 0 min 2 min 0 W/m 16,1 km/h (3 Bft) 97,87 %
08.03.2019 03:14 7,3 C 5,6 C 5,0 C 89 % 1000,7 hPa 0,0 l/m 0 min 2 min 0 W/m 16,1 km/h (3 Bft) 95,74 %
08.03.2019 03:16 7,3 C 5,6 C 5,0 C 90 % 1000,6 hPa 0,0 l/m 0 min 2 min 0 W/m 16,1 km/h (3 Bft) 97,87 %
08.03.2019 03:18 7,3 C 5,6 C 5,0 C 90 % 1000,7 hPa 0,0 l/m 0 min 2 min 0 W/m 16,1 km/h (3 Bft) 97,83 %
08.03.2019 03:20 7,2 C 5,6 C 5,0 C 90 % 1000,7 hPa 0,0 l/m 0 min 2 min 0 W/m 19,3 km/h (3 Bft) 93,62 %
08.03.2019 03:22 7,2 C 5,6 C 5,0 C 90 % 1000,7 hPa 0,0 l/m 0 min 2 min 0 W/m 12,9 km/h (3 Bft) 95,74 %
08.03.2019 03:24 7,2 C 5,6 C 5,0 C 90 % 1000,8 hPa 0,0 l/m 0 min 2 min 0 W/m 19,3 km/h (3 Bft) 95,74 %
08.03.2019 03:26 7,2 C 5,6 C 5,0 C 90 % 1000,8 hPa 0,0 l/m 0 min 2 min 0 W/m 9,7 km/h (2 Bft) 91,49 %
08.03.2019 03:28 7,2 C 5,6 C 5,0 C 90 % 1000,8 hPa 0,0 l/m 0 min 2 min 0 W/m 22,5 km/h (4 Bft) 95,74 %
08.03.2019 03:30 7,2 C 5,6 C 5,0 C 90 % 1000,8 hPa 0,0 l/m 0 min 2 min 0 W/m 22,5 km/h (4 Bft) 95,65 %
08.03.2019 03:32 7,2 C 5,6 C 5,0 C 90 % 1001,0 hPa 0,0 l/m 0 min 2 min 0 W/m 22,5 km/h (4 Bft) 95,74 %
08.03.2019 03:34 7,2 C 5,6 C 5,0 C 91 % 1000,9 hPa 0,2 l/m 0 min 2 min 0 W/m 16,1 km/h (3 Bft) 95,74 %
08.03.2019 03:36 7,2 C 5,6 C 5,0 C 90 % 1000,9 hPa 0,0 l/m 0 min 2 min 0 W/m 19,3 km/h (3 Bft) 94,34 %
08.03.2019 03:38 7,2 C 5,6 C 5,0 C 90 % 1001,0 hPa 0,0 l/m 0 min 2 min 0 W/m 25,7 km/h (4 Bft) 95,12 %
08.03.2019 03:40 7,2 C 5,6 C 5,0 C 91 % 1001,0 hPa 0,0 l/m 0 min 2 min 0 W/m 12,9 km/h (3 Bft) 95,74 %
08.03.2019 03:42 7,2 C 5,6 C 5,0 C 91 % 1000,9 hPa 0,0 l/m 0 min 2 min 0 W/m 6,4 km/h (2 Bft) 95,65 %
08.03.2019 03:44 7,2 C 5,6 C 5,0 C 91 % 1000,9 hPa 0,0 l/m 0 min 2 min 0 W/m 19,3 km/h (3 Bft) 95,74 %
08.03.2019 03:46 7,2 C 5,6 C 5,0 C 91 % 1001,1 hPa 0,0 l/m 0 min 2 min 0 W/m 16,1 km/h (3 Bft) 95,74 %
08.03.2019 03:48 7,2 C 5,6 C 5,0 C 91 % 1001,2 hPa 0,2 l/m 0 min 2 min 0 W/m 29,0 km/h (5 Bft) 95,74 %
08.03.2019 03:50 7,1 C 5,6 C 5,0 C 91 % 1001,4 hPa 0,0 l/m 0 min 2 min 0 W/m 32,2 km/h (5 Bft) 97,87 %
08.03.2019 03:52 7,1 C 5,0 C 5,0 C 91 % 1001,4 hPa 0,2 l/m 0 min 2 min 0 W/m 19,3 km/h (3 Bft) 95,74 %
08.03.2019 03:54 7,0 C 5,0 C 4,4 C 91 % 1001,6 hPa 0,0 l/m 0 min 2 min 0 W/m 19,3 km/h (3 Bft) 100,00 %
08.03.2019 03:56 6,9 C 5,0 C 4,4 C 91 % 1001,5 hPa 0,0 l/m 0 min 2 min 0 W/m 12,9 km/h (3 Bft) 97,87 %
08.03.2019 03:58 6,8 C 5,0 C 4,4 C 91 % 1001,5 hPa 0,0 l/m 0 min 2 min 0 W/m 9,7 km/h (2 Bft) 97,87 %
08.03.2019 04:00 6,7 C 5,0 C 4,4 C 91 % 1001,6 hPa 0,0 l/m 0 min 2 min 0 W/m 16,1 km/h (3 Bft) 95,74 %
08.03.2019 04:02 6,7 C 5,0 C 4,4 C 91 % 1001,6 hPa 0,0 l/m 0 min 2 min 0 W/m 16,1 km/h (3 Bft) 96,77 %
08.03.2019 04:04 6,6 C 5,0 C 4,4 C 91 % 1001,6 hPa 0,0 l/m 0 min 2 min 0 W/m 9,7 km/h (2 Bft) 100,00 %
08.03.2019 04:06 6,6 C 5,0 C 4,4 C 91 % 1001,6 hPa 0,0 l/m 0 min 2 min 0 W/m 12,9 km/h (3 Bft) 94,23 %
08.03.2019 04:08 6,5 C 5,0 C 4,4 C 91 % 1001,7 hPa 0,0 l/m 0 min 2 min 0 W/m 22,5 km/h (4 Bft) 100,00 %
08.03.2019 04:10 6,5 C 5,0 C 4,4 C 91 % 1001,6 hPa 0,0 l/m 0 min 2 min 0 W/m 12,9 km/h (3 Bft) 100,00 %
08.03.2019 04:12 6,4 C 5,0 C 4,4 C 91 % 1001,7 hPa 0,0 l/m 0 min 2 min 0 W/m 6,4 km/h (2 Bft) 97,87 %
08.03.2019 04:14 6,4 C 5,0 C 4,4 C 91 % 1001,9 hPa 0,2 l/m 0 min 2 min 0 W/m 6,4 km/h (2 Bft) 97,87 %
08.03.2019 04:16 6,4 C 5,0 C 4,4 C 92 % 1001,8 hPa 0,0 l/m 0 min 2 min 0 W/m 6,4 km/h (2 Bft) 95,74 %
08.03.2019 04:18 6,4 C 5,0 C 4,4 C 92 % 1001,8 hPa 0,0 l/m 0 min 2 min 0 W/m 9,7 km/h (2 Bft) 97,83 %
08.03.2019 04:20 6,4 C 5,0 C 4,4 C 92 % 1001,8 hPa 0,0 l/m 0 min 2 min 0 W/m 19,3 km/h (3 Bft) 97,87 %
08.03.2019 04:22 6,4 C 5,0 C 4,4 C 92 % 1001,8 hPa 0,0 l/m 0 min 2 min 0 W/m 19,3 km/h (3 Bft) 97,87 %
08.03.2019 04:24 6,4 C 5,0 C 4,4 C 92 % 1002,0 hPa 0,0 l/m 0 min 2 min 0 W/m 9,7 km/h (2 Bft) 97,87 %
08.03.2019 04:26 6,4 C 5,0 C 4,4 C 92 % 1001,9 hPa 0,2 l/m 0 min 2 min 0 W/m 16,1 km/h (3 Bft) 100,00 %
08.03.2019 04:28 6,3 C 5,0 C 4,4 C 92 % 1001,9 hPa 0,0 l/m 0 min 2 min 0 W/m 6,4 km/h (2 Bft) 100,00 %
08.03.2019 04:30 6,3 C 5,0 C 4,4 C 92 % 1002,0 hPa 0,0 l/m 0 min 2 min 0 W/m 9,7 km/h (2 Bft) 100,00 %
08.03.2019 04:32 6,3 C 5,0 C 4,4 C 92 % 1001,9 hPa 0,0 l/m 0 min 2 min 0 W/m 16,1 km/h (3 Bft) 100,00 %
08.03.2019 04:34 6,2 C 4,4 C 4,4 C 92 % 1001,9 hPa 0,0 l/m 0 min 2 min 0 W/m 12,9 km/h (3 Bft) 95,74 %
08.03.2019 04:36 6,2 C 4,4 C 4,4 C 92 % 1002,0 hPa 0,0 l/m 0 min 2 min 0 W/m 9,7 km/h (2 Bft) 98,11 %
08.03.2019 04:38 6,2 C 4,4 C 4,4 C 92 % 1002,1 hPa 0,0 l/m 0 min 2 min 0 W/m 22,5 km/h (4 Bft) 100,00 %
08.03.2019 04:40 6,2 C 5,0 C 4,4 C 92 % 1002,1 hPa 0,0 l/m 0 min 2 min 0 W/m 9,7 km/h (2 Bft) 100,00 %
08.03.2019 04:42 6,1 C 5,0 C 4,4 C 92 % 1002,1 hPa 0,0 l/m 0 min 2 min 0 W/m 6,4 km/h (2 Bft) 100,00 %
08.03.2019 04:44 6,1 C 5,0 C 4,4 C 92 % 1002,2 hPa 0,0 l/m 0 min 0 min 0 W/m 6,4 km/h (2 Bft) 97,87 %
08.03.2019 04:46 6,1 C 5,0 C 4,4 C 92 % 1002,2 hPa 0,0 l/m 0 min 0 min 0 W/m 6,4 km/h (2 Bft) 100,00 %
08.03.2019 04:48 6,1 C 5,0 C 4,4 C 92 % 1002,3 hPa 0,0 l/m 0 min 0 min 0 W/m 9,7 km/h (2 Bft) 100,00 %
08.03.2019 04:50 6,1 C 5,0 C 4,4 C 92 % 1002,3 hPa 0,0 l/m 0 min 2 min 0 W/m 9,7 km/h (2 Bft) 100,00 %
08.03.2019 04:52 6,1 C 5,0 C 4,4 C 92 % 1002,3 hPa 0,0 l/m 0 min 2 min 0 W/m 12,9 km/h (3 Bft) 100,00 %
08.03.2019 04:54 6,0 C 5,0 C 4,4 C 93 % 1002,3 hPa 0,0 l/m 0 min 2 min 0 W/m 6,4 km/h (2 Bft) 97,87 %
08.03.2019 04:56 6,1 C 5,0 C 4,4 C 93 % 1002,3 hPa 0,0 l/m 0 min 2 min 0 W/m 9,7 km/h (2 Bft) 95,74 %
08.03.2019 04:58 6,0 C 5,0 C 4,4 C 93 % 1002,5 hPa 0,0 l/m 0 min 2 min 0 W/m 19,3 km/h (3 Bft) 97,87 %
08.03.2019 05:00 6,0 C 5,0 C 4,4 C 93 % 1002,4 hPa 0,0 l/m 0 min 2 min 0 W/m 16,1 km/h (3 Bft) 97,87 %
08.03.2019 05:02 6,0 C 5,0 C 4,4 C 93 % 1002,5 hPa 0,0 l/m 0 min 2 min 0 W/m 12,9 km/h (3 Bft) 91,49 %
08.03.2019 05:04 6,0 C 5,0 C 4,4 C 93 % 1002,5 hPa 0,0 l/m 0 min 2 min 0 W/m 9,7 km/h (2 Bft) 97,83 %
08.03.2019 05:05 6,0 C 5,0 C 4,4 C 93 % 1002,5 hPa 0,0 l/m 0 min 1 min 0 W/m 16,1 km/h (3 Bft) 100,00 %
08.03.2019 05:10 6,0 C 5,0 C 4,4 C 93 % 1002,7 hPa 0,0 l/m 0 min 5 min 0 W/m 25,7 km/h (4 Bft) 100,00 %
08.03.2019 05:12 6,0 C 5,0 C 4,4 C 93 % 1002,7 hPa 0,0 l/m 0 min 2 min 0 W/m 12,9 km/h (3 Bft) 100,00 %
08.03.2019 05:14 6,0 C 5,0 C 4,4 C 93 % 1002,8 hPa 0,0 l/m 0 min 2 min 0 W/m 9,7 km/h (2 Bft) 97,37 %
08.03.2019 05:19 6,0 C 5,0 C 4,4 C 93 % 1002,8 hPa 0,0 l/m 0 min 5 min 0 W/m 12,9 km/h (3 Bft) 96,20 %
08.03.2019 05:20 6,0 C 5,0 C 4,4 C 93 % 1002,8 hPa 0,0 l/m 0 min 1 min 0 W/m 12,9 km/h (3 Bft) 91,67 %
08.03.2019 05:22 6,0 C 5,0 C 4,4 C 93 % 1002,8 hPa 0,0 l/m 0 min 0 min 0 W/m 12,9 km/h (3 Bft) 96,00 %
08.03.2019 05:24 6,0 C 5,0 C 4,4 C 93 % 1002,9 hPa 0,0 l/m 0 min 0 min 0 W/m 6,4 km/h (2 Bft) 97,87 %
08.03.2019 05:26 6,0 C 5,0 C 4,4 C 93 % 1003,0 hPa 0,0 l/m 0 min 0 min 0 W/m 9,7 km/h (2 Bft) 93,62 %
08.03.2019 05:28 6,0 C 5,0 C 4,4 C 93 % 1003,1 hPa 0,0 l/m 0 min 0 min 0 W/m 9,7 km/h (2 Bft) 97,83 %
08.03.2019 05:30 6,0 C 5,0 C 4,4 C 93 % 1003,1 hPa 0,0 l/m 0 min 2 min 0 W/m 9,7 km/h (2 Bft) 97,67 %
08.03.2019 05:32 6,0 C 5,0 C 4,4 C 93 % 1003,2 hPa 0,0 l/m 0 min 0 min 0 W/m 3,2 km/h (1 Bft) 96,00 %
08.03.2019 05:34 6,0 C 5,0 C 4,4 C 93 % 1003,2 hPa 0,0 l/m 0 min 0 min 0 W/m 6,4 km/h (2 Bft) 97,92 %
08.03.2019 05:36 6,0 C 5,0 C 4,4 C 93 % 1003,2 hPa 0,0 l/m 0 min 0 min 0 W/m 6,4 km/h (2 Bft) 96,55 %
08.03.2019 05:38 6,0 C 5,0 C 4,4 C 93 % 1003,3 hPa 0,0 l/m 0 min 2 min 0 W/m 9,7 km/h (2 Bft) 94,44 %
08.03.2019 05:40 6,0 C 5,0 C 4,4 C 93 % 1003,3 hPa 0,0 l/m 0 min 0 min 0 W/m 6,4 km/h (2 Bft) 97,56 %
08.03.2019 05:42 6,0 C 5,0 C 4,4 C 93 % 1003,4 hPa 0,0 l/m 0 min 0 min 0 W/m 9,7 km/h (2 Bft) 98,00 %
08.03.2019 05:44 6,0 C 5,0 C 4,4 C 93 % 1003,4 hPa 0,0 l/m 0 min 0 min 0 W/m 9,7 km/h (2 Bft) 95,92 %
08.03.2019 05:46 6,0 C 5,0 C 4,4 C 93 % 1003,5 hPa 0,0 l/m 0 min 0 min 0 W/m 6,4 km/h (2 Bft) 97,87 %
08.03.2019 05:48 6,0 C 5,0 C 4,4 C 93 % 1003,6 hPa 0,0 l/m 0 min 0 min 0 W/m 6,4 km/h (2 Bft) 95,74 %
08.03.2019 05:50 6,0 C 5,0 C 4,4 C 93 % 1003,4 hPa 0,0 l/m 0 min 0 min 0 W/m 12,9 km/h (3 Bft) 97,87 %
08.03.2019 05:52 6,0 C 5,0 C 4,4 C 93 % 1003,4 hPa 0,0 l/m 0 min 0 min 0 W/m 19,3 km/h (3 Bft) 97,67 %
08.03.2019 05:54 6,0 C 5,0 C 4,4 C 93 % 1003,6 hPa 0,0 l/m 0 min 0 min 0 W/m 9,7 km/h (2 Bft) 93,88 %
08.03.2019 05:56 6,0 C 5,0 C 4,4 C 93 % 1003,6 hPa 0,0 l/m 0 min 0 min 0 W/m 6,4 km/h (2 Bft) 97,92 %
08.03.2019 05:58 5,9 C 5,0 C 4,4 C 93 % 1003,6 hPa 0,0 l/m 0 min 0 min 0 W/m 16,1 km/h (3 Bft) 97,87 %
08.03.2019 06:00 6,0 C 5,0 C 4,4 C 93 % 1003,7 hPa 0,0 l/m 0 min 0 min 0 W/m 6,4 km/h (2 Bft) 97,87 %
08.03.2019 06:02 6,0 C 5,0 C 4,4 C 93 % 1003,7 hPa 0,0 l/m 0 min 0 min 0 W/m 12,9 km/h (3 Bft) 97,83 %
08.03.2019 06:04 5,9 C 5,0 C 4,4 C 93 % 1003,7 hPa 0,0 l/m 0 min 0 min 0 W/m 9,7 km/h (2 Bft) 97,87 %
08.03.2019 06:08 5,9 C 5,0 C 4,4 C 93 % 1003,7 hPa 0,0 l/m 0 min 0 min 0 W/m 12,9 km/h (3 Bft) 96,81 %
08.03.2019 06:10 5,9 C 5,0 C 4,4 C 93 % 1003,8 hPa 0,0 l/m 0 min 0 min 0 W/m 9,7 km/h (2 Bft) 97,87 %
08.03.2019 06:12 5,9 C 5,0 C 4,4 C 93 % 1003,8 hPa 0,0 l/m 0 min 0 min 0 W/m 16,1 km/h (3 Bft) 97,87 %
08.03.2019 06:14 5,9 C 5,0 C 4,4 C 93 % 1003,8 hPa 0,0 l/m 0 min 0 min 0 W/m 6,4 km/h (2 Bft) 97,83 %
08.03.2019 06:16 5,9 C 5,0 C 4,4 C 93 % 1003,8 hPa 0,0 l/m 0 min 0 min 0 W/m 12,9 km/h (3 Bft) 97,87 %
08.03.2019 06:18 5,9 C 5,0 C 4,4 C 93 % 1003,8 hPa 0,0 l/m 0 min 0 min 0 W/m 22,5 km/h (4 Bft) 97,87 %
08.03.2019 06:20 5,9 C 5,0 C 4,4 C 93 % 1003,9 hPa 0,0 l/m 0 min 0 min 0 W/m 9,7 km/h (2 Bft) 97,87 %
08.03.2019 06:22 5,9 C 5,0 C 4,4 C 93 % 1003,9 hPa 0,0 l/m 0 min 0 min 0 W/m 6,4 km/h (2 Bft) 95,74 %
08.03.2019 06:24 5,9 C 5,0 C 4,4 C 93 % 1004,0 hPa 0,0 l/m 0 min 0 min 0 W/m 6,4 km/h (2 Bft) 97,87 %
08.03.2019 06:26 5,9 C 5,0 C 4,4 C 93 % 1003,9 hPa 0,0 l/m 0 min 0 min 0 W/m 9,7 km/h (2 Bft) 100,00 %
08.03.2019 06:28 5,9 C 5,0 C 4,4 C 93 % 1004,0 hPa 0,0 l/m 0 min 0 min 0 W/m 9,7 km/h (2 Bft) 100,00 %
08.03.2019 06:30 5,9 C 5,0 C 4,4 C 93 % 1004,1 hPa 0,0 l/m 0 min 0 min 0 W/m 12,9 km/h (3 Bft) 100,00 %
08.03.2019 06:32 5,9 C 5,0 C 4,4 C 93 % 1004,1 hPa 0,0 l/m 0 min 0 min 0 W/m 6,4 km/h (2 Bft) 100,00 %
08.03.2019 06:34 5,9 C 5,0 C 4,4 C 93 % 1004,3 hPa 0,0 l/m 0 min 0 min 0 W/m 9,7 km/h (2 Bft) 100,00 %
08.03.2019 06:36 5,9 C 5,0 C 4,4 C 93 % 1004,3 hPa 0,0 l/m 0 min 0 min 0 W/m 16,1 km/h (3 Bft) 100,00 %
08.03.2019 06:38 5,9 C 5,0 C 4,4 C 93 % 1004,3 hPa 0,0 l/m 0 min 0 min 0 W/m 16,1 km/h (3 Bft) 100,00 %
08.03.2019 06:40 5,9 C 5,0 C 4,4 C 93 % 1004,3 hPa 0,0 l/m 0 min 0 min 0 W/m 6,4 km/h (2 Bft) 100,00 %
08.03.2019 06:42 5,9 C 5,0 C 4,4 C 93 % 1004,4 hPa 0,0 l/m 0 min 0 min 0 W/m 9,7 km/h (2 Bft) 100,00 %
08.03.2019 06:44 5,9 C 5,0 C 4,4 C 93 % 1004,5 hPa 0,0 l/m 0 min 0 min 0 W/m 16,1 km/h (3 Bft) 95,74 %
08.03.2019 06:46 5,9 C 5,0 C 4,4 C 93 % 1004,5 hPa 0,0 l/m 0 min 0 min 0 W/m 9,7 km/h (2 Bft) 100,00 %
08.03.2019 06:48 5,9 C 5,0 C 4,4 C 93 % 1004,6 hPa 0,0 l/m 0 min 0 min 0 W/m 3,2 km/h (1 Bft) 100,00 %
08.03.2019 06:50 5,9 C 5,0 C 4,4 C 93 % 1004,6 hPa 0,0 l/m 0 min 0 min 0 W/m 9,7 km/h (2 Bft) 97,83 %
08.03.2019 06:52 5,8 C 5,0 C 4,4 C 93 % 1004,7 hPa 0,0 l/m 0 min 0 min 0 W/m 6,4 km/h (2 Bft) 97,83 %
08.03.2019 06:54 5,8 C 5,0 C 4,4 C 93 % 1004,7 hPa 0,0 l/m 0 min 0 min 0 W/m 22,5 km/h (4 Bft) 97,87 %
08.03.2019 06:56 5,8 C 5,0 C 4,4 C 93 % 1004,8 hPa 0,0 l/m 0 min 0 min 0 W/m 9,7 km/h (2 Bft) 100,00 %
08.03.2019 06:58 5,8 C 5,0 C 4,4 C 93 % 1004,8 hPa 0,0 l/m 0 min 0 min 0 W/m 6,4 km/h (2 Bft) 100,00 %
08.03.2019 07:00 5,8 C 5,0 C 4,4 C 93 % 1004,8 hPa 0,0 l/m 0 min 0 min 0 W/m 9,7 km/h (2 Bft) 100,00 %
08.03.2019 07:02 5,8 C 5,0 C 4,4 C 93 % 1004,9 hPa 0,0 l/m 0 min 0 min 0 W/m 9,7 km/h (2 Bft) 95,65 %
08.03.2019 07:04 5,8 C 5,0 C 4,4 C 93 % 1005,0 hPa 0,0 l/m 0 min 0 min 0 W/m 16,1 km/h (3 Bft) 97,87 %
08.03.2019 07:06 5,8 C 5,0 C 4,4 C 93 % 1005,1 hPa 0,0 l/m 0 min 0 min 0 W/m 9,7 km/h (2 Bft) 98,31 %
08.03.2019 07:08 5,8 C 5,0 C 4,4 C 93 % 1005,1 hPa 0,0 l/m 0 min 0 min 0 W/m 12,9 km/h (3 Bft) 97,14 %
08.03.2019 07:10 5,8 C 5,0 C 4,4 C 93 % 1005,3 hPa 0,0 l/m 0 min 0 min 0 W/m 6,4 km/h (2 Bft) 98,00 %
08.03.2019 07:12 5,8 C 5,0 C 4,4 C 93 % 1005,3 hPa 0,0 l/m 0 min 0 min 0 W/m 9,7 km/h (2 Bft) 97,83 %
08.03.2019 07:14 5,8 C 5,0 C 4,4 C 93 % 1005,4 hPa 0,0 l/m 0 min 0 min 0 W/m 3,2 km/h (1 Bft) 97,87 %
08.03.2019 07:16 5,9 C 5,0 C 4,4 C 93 % 1005,5 hPa 0,0 l/m 0 min 0 min 4 W/m 9,7 km/h (2 Bft) 97,87 %
08.03.2019 07:18 5,9 C 5,0 C 4,4 C 93 % 1005,5 hPa 0,0 l/m 0 min 0 min 5 W/m 3,2 km/h (1 Bft) 97,87 %
08.03.2019 07:20 5,9 C 5,0 C 4,4 C 93 % 1005,5 hPa 0,0 l/m 0 min 0 min 6 W/m 0,0 km/h (0 Bft) 97,87 %
08.03.2019 07:22 5,9 C 5,0 C 4,4 C 93 % 1005,6 hPa 0,0 l/m 0 min 0 min 7 W/m 12,9 km/h (3 Bft) 95,74 %
08.03.2019 07:24 5,9 C 5,0 C 4,4 C 93 % 1005,6 hPa 0,0 l/m 0 min 0 min 8 W/m 9,7 km/h (2 Bft) 97,83 %
08.03.2019 07:26 5,9 C 5,0 C 4,4 C 93 % 1005,7 hPa 0,0 l/m 0 min 0 min 10 W/m 6,4 km/h (2 Bft) 95,74 %
08.03.2019 07:28 5,9 C 5,0 C 4,4 C 93 % 1005,7 hPa 0,0 l/m 0 min 0 min 16 W/m 6,4 km/h (2 Bft) 97,87 %
08.03.2019 07:30 5,9 C 5,0 C 4,4 C 93 % 1005,9 hPa 0,0 l/m 0 min 0 min 19 W/m 9,7 km/h (2 Bft) 97,87 %
08.03.2019 07:32 5,9 C 5,0 C 4,4 C 93 % 1005,8 hPa 0,0 l/m 0 min 0 min 21 W/m 9,7 km/h (2 Bft) 95,74 %
08.03.2019 07:34 5,9 C 5,0 C 4,4 C 93 % 1005,9 hPa 0,0 l/m 0 min 0 min 24 W/m 9,7 km/h (2 Bft) 97,87 %
08.03.2019 07:36 5,9 C 5,0 C 4,4 C 93 % 1005,9 hPa 0,0 l/m 0 min 0 min 22 W/m 9,7 km/h (2 Bft) 97,83 %
08.03.2019 07:38 5,9 C 5,0 C 4,4 C 93 % 1006,1 hPa 0,0 l/m 0 min 0 min 19 W/m 9,7 km/h (2 Bft) 97,87 %
08.03.2019 07:40 5,9 C 5,0 C 4,4 C 93 % 1006,0 hPa 0,0 l/m 0 min 0 min 17 W/m 6,4 km/h (2 Bft) 95,74 %
08.03.2019 07:42 5,9 C 5,0 C 4,4 C 93 % 1006,1 hPa 0,0 l/m 0 min 0 min 18 W/m 16,1 km/h (3 Bft) 91,49 %
08.03.2019 07:44 6,0 C 5,0 C 4,4 C 93 % 1006,2 hPa 0,0 l/m 0 min 0 min 18 W/m 6,4 km/h (2 Bft) 95,74 %
08.03.2019 07:46 6,0 C 5,0 C 4,4 C 93 % 1006,3 hPa 0,0 l/m 0 min 0 min 18 W/m 16,1 km/h (3 Bft) 93,48 %
08.03.2019 07:48 6,0 C 5,0 C 4,4 C 93 % 1006,3 hPa 0,0 l/m 0 min 0 min 18 W/m 16,1 km/h (3 Bft) 95,74 %
08.03.2019 07:50 6,0 C 5,0 C 4,4 C 93 % 1006,4 hPa 0,0 l/m 0 min 0 min 15 W/m 9,7 km/h (2 Bft) 95,74 %
08.03.2019 07:52 6,0 C 5,0 C 4,4 C 93 % 1006,4 hPa 0,0 l/m 0 min 0 min 16 W/m 12,9 km/h (3 Bft) 95,74 %
08.03.2019 07:54 6,0 C 5,0 C 4,4 C 93 % 1006,4 hPa 0,0 l/m 0 min 0 min 19 W/m 12,9 km/h (3 Bft) 93,62 %
08.03.2019 07:56 6,0 C 5,0 C 4,4 C 93 % 1006,5 hPa 0,0 l/m 0 min 0 min 19 W/m 12,9 km/h (3 Bft) 93,62 %
08.03.2019 07:58 6,1 C 5,0 C 4,4 C 93 % 1006,6 hPa 0,0 l/m 0 min 0 min 19 W/m 6,4 km/h (2 Bft) 91,49 %
08.03.2019 08:00 6,0 C 5,0 C 4,4 C 93 % 1006,7 hPa 0,0 l/m 0 min 0 min 18 W/m 9,7 km/h (2 Bft) 93,48 %
08.03.2019 08:02 6,1 C 5,0 C 4,4 C 93 % 1006,8 hPa 0,0 l/m 0 min 0 min 15 W/m 16,1 km/h (3 Bft) 93,62 %
08.03.2019 08:04 6,1 C 5,0 C 4,4 C 93 % 1006,7 hPa 0,0 l/m 0 min 0 min 12 W/m 9,7 km/h (2 Bft) 95,74 %
08.03.2019 08:06 6,1 C 5,0 C 4,4 C 93 % 1006,9 hPa 0,0 l/m 0 min 0 min 12 W/m 6,4 km/h (2 Bft) 95,74 %
08.03.2019 08:08 6,1 C 5,0 C 4,4 C 92 % 1006,8 hPa 0,0 l/m 0 min 0 min 13 W/m 16,1 km/h (3 Bft) 93,62 %
08.03.2019 08:10 6,0 C 5,0 C 4,4 C 92 % 1006,9 hPa 0,0 l/m 0 min 0 min 15 W/m 12,9 km/h (3 Bft) 95,74 %
08.03.2019 08:12 6,1 C 5,0 C 4,4 C 92 % 1006,9 hPa 0,0 l/m 0 min 0 min 19 W/m 0,0 km/h (0 Bft) 95,65 %
08.03.2019 08:14 6,1 C 5,0 C 4,4 C 92 % 1007,0 hPa 0,0 l/m 0 min 0 min 23 W/m 9,7 km/h (2 Bft) 97,87 %
08.03.2019 08:16 6,1 C 5,0 C 4,4 C 92 % 1007,0 hPa 0,0 l/m 0 min 0 min 31 W/m 9,7 km/h (2 Bft) 93,62 %
08.03.2019 08:18 6,1 C 5,0 C 4,4 C 92 % 1007,1 hPa 0,0 l/m 0 min 0 min 36 W/m 9,7 km/h (2 Bft) 93,62 %
08.03.2019 08:20 6,1 C 5,6 C 4,4 C 92 % 1007,2 hPa 0,0 l/m 0 min 0 min 38 W/m 16,1 km/h (3 Bft) 97,87 %
08.03.2019 08:22 6,1 C 5,6 C 4,4 C 92 % 1007,2 hPa 0,0 l/m 0 min 0 min 37 W/m 9,7 km/h (2 Bft) 95,65 %
08.03.2019 08:24 6,1 C 5,6 C 4,4 C 92 % 1007,3 hPa 0,0 l/m 0 min 0 min 40 W/m 9,7 km/h (2 Bft) 95,74 %
08.03.2019 08:26 6,1 C 5,6 C 4,4 C 92 % 1007,4 hPa 0,0 l/m 0 min 0 min 39 W/m 6,4 km/h (2 Bft) 93,62 %
08.03.2019 08:28 6,1 C 5,6 C 4,4 C 92 % 1007,5 hPa 0,0 l/m 0 min 0 min 36 W/m 9,7 km/h (2 Bft) 93,62 %
08.03.2019 08:30 6,1 C 5,6 C 4,4 C 92 % 1007,6 hPa 0,0 l/m 0 min 0 min 32 W/m 12,9 km/h (3 Bft) 97,87 %
08.03.2019 08:32 6,2 C 5,6 C 4,4 C 92 % 1007,6 hPa 0,0 l/m 0 min 0 min 29 W/m 12,9 km/h (3 Bft) 97,87 %
08.03.2019 08:34 6,2 C 5,6 C 4,4 C 92 % 1007,6 hPa 0,0 l/m 0 min 0 min 39 W/m 9,7 km/h (2 Bft) 95,65 %
08.03.2019 08:36 6,2 C 5,6 C 5,0 C 92 % 1007,7 hPa 0,0 l/m 0 min 0 min 60 W/m 9,7 km/h (2 Bft) 95,74 %
08.03.2019 08:38 6,2 C 5,6 C 5,0 C 92 % 1007,7 hPa 0,0 l/m 0 min 0 min 62 W/m 9,7 km/h (2 Bft) 97,87 %
08.03.2019 08:40 6,2 C 5,6 C 5,0 C 92 % 1007,8 hPa 0,0 l/m 0 min 0 min 54 W/m 12,9 km/h (3 Bft) 97,87 %
08.03.2019 08:42 6,2 C 5,6 C 5,0 C 92 % 1007,9 hPa 0,0 l/m 0 min 0 min 48 W/m 12,9 km/h (3 Bft) 97,87 %
08.03.2019 08:44 6,3 C 5,6 C 5,0 C 91 % 1007,9 hPa 0,2 l/m 0 min 0 min 52 W/m 16,1 km/h (3 Bft) 95,74 %
08.03.2019 08:46 6,3 C 5,6 C 5,0 C 91 % 1008,0 hPa 0,0 l/m 0 min 0 min 57 W/m 16,1 km/h (3 Bft) 97,83 %
08.03.2019 08:48 6,3 C 5,6 C 5,0 C 91 % 1008,0 hPa 0,0 l/m 0 min 0 min 61 W/m 16,1 km/h (3 Bft) 97,87 %
08.03.2019 08:50 6,3 C 5,6 C 5,0 C 91 % 1008,0 hPa 0,0 l/m 0 min 0 min 64 W/m 16,1 km/h (3 Bft) 97,87 %
08.03.2019 08:52 6,4 C 5,6 C 5,0 C 91 % 1008,1 hPa 0,0 l/m 0 min 0 min 65 W/m 16,1 km/h (3 Bft) 97,87 %
08.03.2019 08:54 6,4 C 5,6 C 5,0 C 91 % 1008,1 hPa 0,0 l/m 0 min 0 min 59 W/m 19,3 km/h (3 Bft) 97,87 %
08.03.2019 08:56 6,4 C 5,6 C 5,0 C 91 % 1008,2 hPa 0,0 l/m 0 min 0 min 52 W/m 9,7 km/h (2 Bft) 93,62 %
08.03.2019 08:58 6,4 C 5,6 C 5,0 C 91 % 1008,2 hPa 0,0 l/m 0 min 0 min 48 W/m 12,9 km/h (3 Bft) 95,65 %
08.03.2019 09:00 6,4 C 5,6 C 5,0 C 90 % 1008,2 hPa 0,0 l/m 0 min 0 min 58 W/m 12,9 km/h (3 Bft) 97,87 %
08.03.2019 09:02 6,4 C 5,6 C 5,0 C 90 % 1008,3 hPa 0,0 l/m 0 min 0 min 60 W/m 19,3 km/h (3 Bft) 97,87 %
08.03.2019 09:04 6,4 C 5,6 C 5,0 C 90 % 1008,3 hPa 0,0 l/m 0 min 0 min 66 W/m 16,1 km/h (3 Bft) 100,00 %
08.03.2019 09:06 6,4 C 5,6 C 5,0 C 90 % 1008,4 hPa 0,0 l/m 0 min 0 min 68 W/m 12,9 km/h (3 Bft) 100,00 %
08.03.2019 09:08 6,5 C 5,6 C 5,0 C 90 % 1008,4 hPa 0,0 l/m 0 min 0 min 77 W/m 16,1 km/h (3 Bft) 100,00 %
08.03.2019 09:10 6,5 C 6,1 C 5,0 C 90 % 1008,4 hPa 0,0 l/m 0 min 0 min 92 W/m 12,9 km/h (3 Bft) 100,00 %
08.03.2019 09:12 6,5 C 6,1 C 5,0 C 90 % 1008,5 hPa 0,0 l/m 0 min 0 min 95 W/m 12,9 km/h (3 Bft) 97,87 %
08.03.2019 09:14 6,5 C 6,1 C 5,0 C 90 % 1008,4 hPa 0,0 l/m 0 min 0 min 88 W/m 25,7 km/h (4 Bft) 100,00 %
08.03.2019 09:16 6,5 C 5,6 C 5,0 C 89 % 1008,4 hPa 0,0 l/m 0 min 0 min 73 W/m 22,5 km/h (4 Bft) 100,00 %
08.03.2019 09:18 6,5 C 5,6 C 5,0 C 89 % 1008,5 hPa 0,0 l/m 0 min 0 min 71 W/m 12,9 km/h (3 Bft) 100,00 %
08.03.2019 09:20 6,5 C 6,1 C 5,0 C 89 % 1008,6 hPa 0,0 l/m 0 min 0 min 79 W/m 19,3 km/h (3 Bft) 100,00 %
08.03.2019 09:22 6,6 C 5,6 C 5,0 C 89 % 1008,7 hPa 0,0 l/m 0 min 0 min 68 W/m 9,7 km/h (2 Bft) 97,83 %
08.03.2019 09:24 6,5 C 6,7 C 5,0 C 89 % 1008,7 hPa 0,0 l/m 0 min 0 min 113 W/m 16,1 km/h (3 Bft) 100,00 %
08.03.2019 09:26 6,6 C 7,2 C 5,0 C 88 % 1008,9 hPa 0,0 l/m 2 min 0 min 238 W/m 16,1 km/h (3 Bft) 100,00 %
08.03.2019 09:28 6,6 C 7,8 C 5,6 C 88 % 1008,8 hPa 0,0 l/m 0 min 0 min 165 W/m 19,3 km/h (3 Bft) 97,87 %
08.03.2019 09:30 6,7 C 8,3 C 6,7 C 88 % 1008,9 hPa 0,0 l/m 2 min 0 min 295 W/m 6,4 km/h (2 Bft) 100,00 %
08.03.2019 09:32 6,7 C 7,8 C 6,1 C 88 % 1008,8 hPa 0,0 l/m 2 min 0 min 222 W/m 9,7 km/h (2 Bft) 100,00 %
08.03.2019 09:34 6,8 C 8,3 C 6,7 C 88 % 1008,9 hPa 0,0 l/m 0 min 0 min 142 W/m 22,5 km/h (4 Bft) 100,00 %
08.03.2019 09:36 6,8 C 8,9 C 7,2 C 88 % 1009,0 hPa 0,0 l/m 2 min 0 min 336 W/m 12,9 km/h (3 Bft) 97,87 %
08.03.2019 09:38 6,9 C 9,4 C 7,2 C 87 % 1009,0 hPa 0,0 l/m 2 min 0 min 330 W/m 9,7 km/h (2 Bft) 100,00 %
08.03.2019 09:40 7,0 C 9,4 C 7,8 C 87 % 1009,1 hPa 0,0 l/m 2 min 0 min 342 W/m 12,9 km/h (3 Bft) 97,83 %
08.03.2019 09:42 7,1 C 10,0 C 7,8 C 87 % 1009,1 hPa 0,0 l/m 2 min 0 min 353 W/m 19,3 km/h (3 Bft) 97,87 %
08.03.2019 09:44 7,2 C 10,6 C 8,3 C 86 % 1009,1 hPa 0,0 l/m 2 min 0 min 356 W/m 9,7 km/h (2 Bft) 100,00 %
08.03.2019 09:46 7,3 C 11,1 C 8,9 C 86 % 1009,0 hPa 0,0 l/m 2 min 0 min 371 W/m 16,1 km/h (3 Bft) 100,00 %
08.03.2019 09:48 7,4 C 10,6 C 9,4 C 85 % 1009,1 hPa 0,0 l/m 2 min 0 min 377 W/m 16,1 km/h (3 Bft) 100,00 %
08.03.2019 09:50 7,6 C 10,6 C 10,0 C 85 % 1009,1 hPa 0,0 l/m 2 min 0 min 385 W/m 16,1 km/h (3 Bft) 100,00 %
08.03.2019 09:52 7,7 C 10,0 C 9,4 C 84 % 1009,1 hPa 0,0 l/m 2 min 0 min 367 W/m 22,5 km/h (4 Bft) 100,00 %
08.03.2019 09:54 7,8 C 11,7 C 10,0 C 84 % 1009,2 hPa 0,0 l/m 2 min 0 min 378 W/m 9,7 km/h (2 Bft) 100,00 %
08.03.2019 09:56 7,8 C 11,1 C 9,4 C 83 % 1009,3 hPa 0,0 l/m 2 min 0 min 460 W/m 12,9 km/h (3 Bft) 100,00 %
08.03.2019 09:58 7,9 C 11,1 C 9,4 C 83 % 1009,3 hPa 0,0 l/m 2 min 0 min 286 W/m 9,7 km/h (2 Bft) 97,87 %
08.03.2019 10:00 8,0 C 11,7 C 9,4 C 83 % 1009,3 hPa 0,0 l/m 2 min 0 min 306 W/m 16,1 km/h (3 Bft) 100,00 %
08.03.2019 10:02 8,1 C 11,1 C 8,9 C 82 % 1009,4 hPa 0,0 l/m 2 min 0 min 279 W/m 25,7 km/h (4 Bft) 95,74 %
08.03.2019 10:04 8,1 C 10,6 C 8,9 C 82 % 1009,2 hPa 0,0 l/m 2 min 0 min 231 W/m 16,1 km/h (3 Bft) 100,00 %
08.03.2019 10:06 8,1 C 10,6 C 8,9 C 82 % 1009,4 hPa 0,0 l/m 2 min 0 min 258 W/m 22,5 km/h (4 Bft) 97,83 %
08.03.2019 10:08 8,1 C 11,1 C 9,4 C 81 % 1009,4 hPa 0,0 l/m 2 min 0 min 404 W/m 22,5 km/h (4 Bft) 95,74 %
08.03.2019 10:10 8,2 C 11,7 C 9,4 C 81 % 1009,4 hPa 0,0 l/m 2 min 0 min 446 W/m 16,1 km/h (3 Bft) 97,87 %
08.03.2019 10:12 8,2 C 11,1 C 8,9 C 81 % 1009,5 hPa 0,0 l/m 2 min 0 min 283 W/m 12,9 km/h (3 Bft) 95,74 %
08.03.2019 10:14 8,2 C 11,1 C 8,9 C 80 % 1009,5 hPa 0,0 l/m 2 min 0 min 233 W/m 22,5 km/h (4 Bft) 93,62 %
08.03.2019 10:16 8,2 C 11,1 C 8,3 C 80 % 1009,4 hPa 0,0 l/m 2 min 0 min 292 W/m 25,7 km/h (4 Bft) 97,87 %
08.03.2019 10:18 8,3 C 11,7 C 8,3 C 80 % 1009,5 hPa 0,0 l/m 2 min 0 min 345 W/m 12,9 km/h (3 Bft) 97,83 %
08.03.2019 10:20 8,3 C 10,0 C 7,8 C 80 % 1009,5 hPa 0,0 l/m 2 min 0 min 304 W/m 29,0 km/h (5 Bft) 93,62 %
08.03.2019 10:22 8,3 C 12,2 C 8,3 C 80 % 1009,5 hPa 0,0 l/m 2 min 0 min 263 W/m 16,1 km/h (3 Bft) 95,74 %
08.03.2019 10:24 8,4 C 11,1 C 8,3 C 80 % 1009,6 hPa 0,0 l/m 2 min 0 min 566 W/m 22,5 km/h (4 Bft) 95,74 %
08.03.2019 10:26 8,4 C 12,2 C 8,3 C 79 % 1009,7 hPa 0,0 l/m 2 min 0 min 540 W/m 22,5 km/h (4 Bft) 95,74 %
08.03.2019 10:28 8,4 C 10,0 C 7,8 C 79 % 1009,7 hPa 0,0 l/m 2 min 0 min 274 W/m 22,5 km/h (4 Bft) 95,74 %
08.03.2019 10:30 8,4 C 9,4 C 7,8 C 78 % 1009,9 hPa 0,0 l/m 0 min 0 min 162 W/m 9,7 km/h (2 Bft) 93,48 %
08.03.2019 10:32 8,4 C 10,6 C 8,3 C 79 % 1009,8 hPa 0,0 l/m 0 min 0 min 197 W/m 12,9 km/h (3 Bft) 95,74 %
08.03.2019 10:34 8,4 C 10,0 C 8,3 C 79 % 1010,1 hPa 0,0 l/m 0 min 0 min 209 W/m 16,1 km/h (3 Bft) 95,74 %
08.03.2019 10:36 8,4 C 9,4 C 8,3 C 79 % 1010,0 hPa 0,0 l/m 0 min 0 min 202 W/m 19,3 km/h (3 Bft) 95,74 %
08.03.2019 10:38 8,4 C 8,9 C 7,8 C 79 % 1010,0 hPa 0,0 l/m 0 min 0 min 144 W/m 22,5 km/h (4 Bft) 95,83 %
08.03.2019 10:40 8,4 C 8,3 C 7,8 C 79 % 1010,1 hPa 0,0 l/m 0 min 0 min 109 W/m 12,9 km/h (3 Bft) 95,74 %
08.03.2019 10:42 8,3 C 8,3 C 7,2 C 79 % 1010,1 hPa 0,0 l/m 0 min 0 min 88 W/m 9,7 km/h (2 Bft) 93,48 %
08.03.2019 10:44 8,2 C 7,8 C 7,2 C 79 % 1010,0 hPa 0,0 l/m 0 min 0 min 75 W/m 12,9 km/h (3 Bft) 95,74 %
08.03.2019 10:46 8,2 C 7,8 C 7,2 C 79 % 1010,1 hPa 0,0 l/m 0 min 0 min 101 W/m 25,7 km/h (4 Bft) 95,74 %
08.03.2019 10:48 8,1 C 7,8 C 7,2 C 79 % 1010,2 hPa 0,0 l/m 0 min 0 min 97 W/m 12,9 km/h (3 Bft) 95,74 %
08.03.2019 10:50 8,1 C 7,8 C 7,2 C 79 % 1010,3 hPa 0,0 l/m 0 min 0 min 85 W/m 16,1 km/h (3 Bft) 97,87 %
08.03.2019 10:52 8,0 C 7,8 C 7,2 C 79 % 1010,3 hPa 0,0 l/m 0 min 0 min 108 W/m 25,7 km/h (4 Bft) 97,87 %
08.03.2019 10:54 7,9 C 7,8 C 7,2 C 78 % 1010,3 hPa 0,0 l/m 0 min 0 min 144 W/m 16,1 km/h (3 Bft) 97,83 %
08.03.2019 10:56 7,9 C 7,8 C 7,2 C 79 % 1010,3 hPa 0,0 l/m 0 min 0 min 140 W/m 22,5 km/h (4 Bft) 97,87 %
08.03.2019 10:58 7,9 C 7,8 C 7,2 C 79 % 1010,3 hPa 0,0 l/m 0 min 0 min 132 W/m 16,1 km/h (3 Bft) 95,74 %
08.03.2019 11:00 7,9 C 8,3 C 7,8 C 79 % 1010,4 hPa 0,0 l/m 0 min 0 min 176 W/m 12,9 km/h (3 Bft) 97,87 %
08.03.2019 11:02 7,9 C 8,3 C 7,8 C 79 % 1010,4 hPa 0,0 l/m 0 min 0 min 165 W/m 9,7 km/h (2 Bft) 95,74 %
08.03.2019 11:04 7,9 C 8,3 C 7,8 C 79 % 1010,4 hPa 0,0 l/m 0 min 0 min 128 W/m 22,5 km/h (4 Bft) 97,87 %
08.03.2019 11:06 7,9 C 7,8 C 7,2 C 79 % 1010,4 hPa 0,0 l/m 0 min 0 min 94 W/m 16,1 km/h (3 Bft) 100,00 %
08.03.2019 11:08 7,9 C 7,8 C 7,2 C 79 % 1010,4 hPa 0,0 l/m 0 min 0 min 112 W/m 9,7 km/h (2 Bft) 100,00 %
08.03.2019 11:10 7,8 C 8,3 C 7,2 C 79 % 1010,4 hPa 0,0 l/m 0 min 0 min 133 W/m 16,1 km/h (3 Bft) 100,00 %
08.03.2019 11:12 7,9 C 9,4 C 7,8 C 79 % 1010,5 hPa 0,0 l/m 0 min 0 min 191 W/m 9,7 km/h (2 Bft) 97,87 %
08.03.2019 11:14 7,9 C 10,6 C 8,3 C 79 % 1010,5 hPa 0,0 l/m 2 min 0 min 405 W/m 16,1 km/h (3 Bft) 100,00 %
08.03.2019 11:16 8,0 C 9,4 C 8,3 C 79 % 1010,6 hPa 0,0 l/m 0 min 0 min 250 W/m 12,9 km/h (3 Bft) 100,00 %
08.03.2019 11:18 8,1 C 9,4 C 7,8 C 78 % 1010,5 hPa 0,0 l/m 0 min 0 min 215 W/m 19,3 km/h (3 Bft) 100,00 %
08.03.2019 11:20 8,1 C 11,1 C 8,3 C 78 % 1010,5 hPa 0,0 l/m 0 min 0 min 207 W/m 16,1 km/h (3 Bft) 100,00 %
08.03.2019 11:22 8,2 C 13,9 C 8,9 C 79 % 1010,6 hPa 0,0 l/m 2 min 0 min 563 W/m 22,5 km/h (4 Bft) 97,87 %
08.03.2019 11:26 8,5 C 14,4 C 9,4 C 79 % 1010,7 hPa 0,0 l/m 4 min 0 min 592 W/m 12,9 km/h (3 Bft) 96,77 %
08.03.2019 11:28 8,7 C 13,9 C 10,0 C 79 % 1010,8 hPa 0,0 l/m 2 min 0 min 535 W/m 16,1 km/h (3 Bft) 100,00 %
08.03.2019 11:30 8,8 C 12,8 C 9,4 C 78 % 1010,9 hPa 0,0 l/m 2 min 0 min 374 W/m 19,3 km/h (3 Bft) 95,92 %
08.03.2019 11:32 8,9 C 10,6 C 8,9 C 77 % 1010,8 hPa 0,0 l/m 2 min 0 min 270 W/m 22,5 km/h (4 Bft) 100,00 %
08.03.2019 11:34 8,9 C 10,6 C 8,9 C 76 % 1010,9 hPa 0,0 l/m 0 min 0 min 215 W/m 12,9 km/h (3 Bft) 100,00 %
08.03.2019 11:36 8,9 C 11,1 C 8,9 C 76 % 1010,8 hPa 0,0 l/m 0 min 0 min 214 W/m 22,5 km/h (4 Bft) 100,00 %
08.03.2019 11:38 8,9 C 10,6 C 8,9 C 76 % 1010,9 hPa 0,0 l/m 0 min 0 min 255 W/m 12,9 km/h (3 Bft) 100,00 %
08.03.2019 11:40 8,9 C 10,0 C 8,9 C 75 % 1010,9 hPa 0,0 l/m 2 min 0 min 301 W/m 19,3 km/h (3 Bft) 97,83 %
08.03.2019 11:42 8,9 C 10,0 C 8,9 C 75 % 1011,0 hPa 0,0 l/m 2 min 0 min 282 W/m 16,1 km/h (3 Bft) 100,00 %
08.03.2019 11:44 8,8 C 10,0 C 8,9 C 75 % 1011,0 hPa 0,0 l/m 2 min 0 min 282 W/m 12,9 km/h (3 Bft) 85,71 %
08.03.2019 11:46 8,8 C 10,0 C 8,9 C 75 % 1011,0 hPa 0,0 l/m 2 min 0 min 286 W/m 16,1 km/h (3 Bft) 89,80 %
08.03.2019 11:48 8,8 C 10,0 C 8,9 C 76 % 1011,0 hPa 0,0 l/m 0 min 0 min 265 W/m 22,5 km/h (4 Bft) 100,00 %
08.03.2019 11:50 8,8 C 10,0 C 8,9 C 76 % 1011,0 hPa 0,0 l/m 0 min 0 min 251 W/m 25,7 km/h (4 Bft) 91,89 %
08.03.2019 11:52 8,8 C 10,6 C 8,9 C 75 % 1011,1 hPa 0,0 l/m 2 min 0 min 295 W/m 16,1 km/h (3 Bft) 95,83 %
08.03.2019 11:54 8,8 C 12,8 C 8,9 C 76 % 1011,1 hPa 0,0 l/m 2 min 0 min 618 W/m 25,7 km/h (4 Bft) 96,43 %
08.03.2019 11:56 8,9 C 12,8 C 8,9 C 76 % 1011,2 hPa 0,0 l/m 2 min 0 min 619 W/m 16,1 km/h (3 Bft) 96,00 %
08.03.2019 11:58 9,0 C 13,9 C 9,4 C 76 % 1011,2 hPa 0,0 l/m 2 min 0 min 694 W/m 19,3 km/h (3 Bft) 100,00 %
08.03.2019 12:00 9,2 C 15,0 C 10,0 C 76 % 1011,2 hPa 0,0 l/m 2 min 0 min 697 W/m 29,0 km/h (5 Bft) 100,00 %
08.03.2019 12:02 9,3 C 16,1 C 10,0 C 76 % 1011,2 hPa 0,0 l/m 2 min 0 min 719 W/m 22,5 km/h (4 Bft) 97,37 %
08.03.2019 12:04 9,7 C 17,2 C 10,6 C 76 % 1011,3 hPa 0,0 l/m 2 min 0 min 732 W/m 22,5 km/h (4 Bft) 100,00 %
08.03.2019 12:07 10,0 C 13,9 C 10,6 C 74 % 1011,3 hPa 0,0 l/m 3 min 0 min 769 W/m 22,5 km/h (4 Bft) 98,63 %
08.03.2019 12:08 10,0 C 13,3 C 10,0 C 73 % 1011,3 hPa 0,0 l/m 1 min 0 min 775 W/m 16,1 km/h (3 Bft) 100,00 %
08.03.2019 12:10 10,1 C 11,7 C 10,0 C 71 % 1011,4 hPa 0,0 l/m 2 min 0 min 289 W/m 22,5 km/h (4 Bft) 97,87 %
08.03.2019 12:12 10,0 C 10,6 C 9,4 C 70 % 1011,4 hPa 0,0 l/m 0 min 0 min 185 W/m 25,7 km/h (4 Bft) 95,65 %
08.03.2019 12:14 9,9 C 12,8 C 9,4 C 70 % 1011,4 hPa 0,0 l/m 0 min 0 min 218 W/m 25,7 km/h (4 Bft) 100,00 %
08.03.2019 12:16 9,9 C 13,9 C 10,0 C 70 % 1011,4 hPa 0,0 l/m 2 min 0 min 674 W/m 19,3 km/h (3 Bft) 95,92 %
08.03.2019 12:18 10,1 C 16,1 C 10,6 C 70 % 1011,3 hPa 0,0 l/m 2 min 0 min 719 W/m 19,3 km/h (3 Bft) 100,00 %
08.03.2019 12:20 10,2 C 16,1 C 10,6 C 71 % 1011,4 hPa 0,0 l/m 2 min 0 min 759 W/m 16,1 km/h (3 Bft) 97,92 %
08.03.2019 12:22 10,3 C 16,7 C 11,1 C 71 % 1011,3 hPa 0,0 l/m 2 min 0 min 568 W/m 32,2 km/h (5 Bft) 97,83 %
08.03.2019 12:24 10,4 C 15,6 C 11,1 C 69 % 1011,3 hPa 0,0 l/m 2 min 0 min 568 W/m 22,5 km/h (4 Bft) 100,00 %
08.03.2019 12:26 10,7 C 16,7 C 11,7 C 70 % 1011,4 hPa 0,0 l/m 2 min 0 min 569 W/m 16,1 km/h (3 Bft) 95,24 %
08.03.2019 12:28 10,8 C 13,3 C 11,1 C 67 % 1011,4 hPa 0,0 l/m 2 min 0 min 576 W/m 19,3 km/h (3 Bft) 95,92 %
08.03.2019 12:30 10,8 C 12,2 C 10,6 C 67 % 1011,5 hPa 0,0 l/m 0 min 0 min 273 W/m 9,7 km/h (2 Bft) 93,88 %
08.03.2019 12:32 10,8 C 13,3 C 11,1 C 67 % 1011,6 hPa 0,0 l/m 2 min 0 min 294 W/m 19,3 km/h (3 Bft) 95,83 %
08.03.2019 12:34 10,8 C 15,6 C 12,2 C 68 % 1011,6 hPa 0,0 l/m 2 min 0 min 724 W/m 16,1 km/h (3 Bft) 97,83 %
08.03.2019 12:36 10,9 C 15,0 C 13,3 C 68 % 1011,6 hPa 0,0 l/m 2 min 0 min 571 W/m 16,1 km/h (3 Bft) 97,62 %
08.03.2019 12:38 10,9 C 13,9 C 12,8 C 67 % 1011,5 hPa 0,0 l/m 2 min 0 min 642 W/m 12,9 km/h (3 Bft) 95,83 %
08.03.2019 12:40 10,9 C 12,2 C 11,7 C 66 % 1011,6 hPa 0,0 l/m 2 min 0 min 297 W/m 22,5 km/h (4 Bft) 95,92 %
08.03.2019 12:42 10,8 C 11,1 C 10,6 C 65 % 1011,6 hPa 0,0 l/m 0 min 0 min 211 W/m 19,3 km/h (3 Bft) 97,96 %
08.03.2019 12:44 10,7 C 11,1 C 10,0 C 65 % 1011,7 hPa 0,0 l/m 0 min 0 min 222 W/m 25,7 km/h (4 Bft) 97,87 %
08.03.2019 12:46 10,6 C 11,7 C 11,1 C 66 % 1011,6 hPa 0,0 l/m 2 min 0 min 286 W/m 16,1 km/h (3 Bft) 95,65 %
08.03.2019 12:48 10,6 C 12,8 C 12,2 C 67 % 1011,6 hPa 0,0 l/m 2 min 0 min 334 W/m 19,3 km/h (3 Bft) 95,24 %
08.03.2019 12:50 10,6 C 12,8 C 12,2 C 68 % 1011,6 hPa 0,0 l/m 2 min 0 min 334 W/m 22,5 km/h (4 Bft) 91,67 %
08.03.2019 12:52 10,6 C 14,4 C 13,9 C 68 % 1011,6 hPa 0,0 l/m 2 min 0 min 565 W/m 19,3 km/h (3 Bft) 97,96 %
08.03.2019 12:54 10,7 C 14,4 C 13,9 C 69 % 1011,7 hPa 0,0 l/m 2 min 0 min 571 W/m 12,9 km/h (3 Bft) 93,88 %
08.03.2019 12:56 10,7 C 13,3 C 12,8 C 69 % 1011,7 hPa 0,0 l/m 2 min 0 min 652 W/m 16,1 km/h (3 Bft) 95,74 %
08.03.2019 12:58 10,8 C 14,4 C 13,9 C 69 % 1011,7 hPa 0,0 l/m 2 min 0 min 323 W/m 12,9 km/h (3 Bft) 91,30 %
08.03.2019 13:00 10,8 C 12,8 C 12,2 C 68 % 1011,8 hPa 0,0 l/m 2 min 0 min 294 W/m 19,3 km/h (3 Bft) 95,74 %
08.03.2019 13:02 10,8 C 11,7 C 11,1 C 67 % 1011,8 hPa 0,0 l/m 0 min 0 min 173 W/m 19,3 km/h (3 Bft) 95,45 %
08.03.2019 13:04 10,7 C 10,6 C 10,0 C 66 % 1011,8 hPa 0,0 l/m 0 min 0 min 173 W/m 22,5 km/h (4 Bft) 95,74 %
08.03.2019 13:06 10,6 C 10,6 C 10,0 C 66 % 1011,9 hPa 0,0 l/m 0 min 0 min 151 W/m 25,7 km/h (4 Bft) 96,00 %
08.03.2019 13:08 10,5 C 10,0 C 9,4 C 66 % 1011,9 hPa 0,0 l/m 0 min 0 min 129 W/m 19,3 km/h (3 Bft) 95,74 %
08.03.2019 13:10 10,4 C 10,0 C 9,4 C 66 % 1011,9 hPa 0,0 l/m 0 min 0 min 110 W/m 16,1 km/h (3 Bft) 95,65 %
08.03.2019 13:12 10,3 C 9,4 C 8,9 C 67 % 1011,9 hPa 0,0 l/m 0 min 0 min 112 W/m 19,3 km/h (3 Bft) 92,86 %
08.03.2019 13:14 10,2 C 10,0 C 9,4 C 67 % 1011,9 hPa 0,0 l/m 0 min 0 min 131 W/m 19,3 km/h (3 Bft) 93,88 %
08.03.2019 13:16 10,2 C 10,6 C 9,4 C 68 % 1011,9 hPa 0,0 l/m 0 min 0 min 179 W/m 12,9 km/h (3 Bft) 95,92 %
08.03.2019 13:18 10,1 C 10,0 C 9,4 C 68 % 1011,9 hPa 0,0 l/m 0 min 0 min 124 W/m 12,9 km/h (3 Bft) 95,83 %
08.03.2019 13:20 10,1 C 10,0 C 9,4 C 69 % 1011,9 hPa 0,0 l/m 0 min 0 min 147 W/m 9,7 km/h (2 Bft) 95,65 %
08.03.2019 13:22 10,0 C 12,2 C 11,1 C 69 % 1012,0 hPa 0,0 l/m 0 min 0 min 213 W/m 19,3 km/h (3 Bft) 95,74 %
08.03.2019 13:24 10,1 C 15,0 C 13,9 C 70 % 1011,9 hPa 0,0 l/m 2 min 0 min 720 W/m 19,3 km/h (3 Bft) 95,24 %
08.03.2019 13:26 10,2 C 17,2 C 15,0 C 70 % 1011,9 hPa 0,0 l/m 2 min 0 min 769 W/m 16,1 km/h (3 Bft) 93,88 %
08.03.2019 13:28 10,3 C 16,7 C 15,0 C 70 % 1011,9 hPa 0,0 l/m 2 min 0 min 560 W/m 25,7 km/h (4 Bft) 95,92 %
08.03.2019 13:30 10,5 C 15,6 C 13,9 C 69 % 1011,9 hPa 0,0 l/m 2 min 0 min 644 W/m 12,9 km/h (3 Bft) 95,83 %
08.03.2019 13:32 10,6 C 12,8 C 12,2 C 68 % 1012,0 hPa 0,0 l/m 0 min 0 min 248 W/m 19,3 km/h (3 Bft) 93,48 %
08.03.2019 13:34 10,6 C 12,2 C 11,1 C 66 % 1012,0 hPa 0,0 l/m 0 min 0 min 230 W/m 16,1 km/h (3 Bft) 95,74 %
08.03.2019 13:36 10,6 C 12,2 C 11,1 C 65 % 1011,9 hPa 0,0 l/m 0 min 0 min 195 W/m 9,7 km/h (2 Bft) 95,74 %
08.03.2019 13:38 10,6 C 12,8 C 11,1 C 66 % 1012,0 hPa 0,0 l/m 0 min 0 min 199 W/m 16,1 km/h (3 Bft) 95,35 %
08.03.2019 13:40 10,6 C 13,9 C 11,7 C 66 % 1011,9 hPa 0,0 l/m 2 min 0 min 343 W/m 19,3 km/h (3 Bft) 95,74 %
08.03.2019 13:42 10,7 C 15,0 C 11,7 C 66 % 1011,9 hPa 0,0 l/m 2 min 0 min 308 W/m 12,9 km/h (3 Bft) 93,88 %
08.03.2019 13:44 10,8 C 14,4 C 11,1 C 66 % 1011,9 hPa 0,0 l/m 2 min 0 min 385 W/m 9,7 km/h (2 Bft) 97,92 %
08.03.2019 13:46 10,8 C 13,9 C 11,1 C 66 % 1012,0 hPa 0,0 l/m 2 min 0 min 311 W/m 16,1 km/h (3 Bft) 95,74 %
08.03.2019 13:48 10,8 C 14,4 C 11,1 C 66 % 1011,9 hPa 0,0 l/m 2 min 0 min 364 W/m 16,1 km/h (3 Bft) 97,87 %
08.03.2019 13:50 10,9 C 12,8 C 10,6 C 65 % 1011,8 hPa 0,0 l/m 2 min 0 min 315 W/m 12,9 km/h (3 Bft) 97,56 %
08.03.2019 13:52 10,8 C 12,2 C 10,6 C 65 % 1011,9 hPa 0,0 l/m 2 min 0 min 327 W/m 22,5 km/h (4 Bft) 98,00 %
08.03.2019 13:54 10,8 C 11,7 C 10,6 C 65 % 1011,9 hPa 0,0 l/m 2 min 0 min 357 W/m 19,3 km/h (3 Bft) 97,96 %
08.03.2019 13:56 10,8 C 12,2 C 10,6 C 65 % 1011,9 hPa 0,0 l/m 2 min 0 min 390 W/m 12,9 km/h (3 Bft) 95,74 %
08.03.2019 13:58 10,8 C 12,8 C 10,6 C 66 % 1011,9 hPa 0,0 l/m 2 min 0 min 321 W/m 12,9 km/h (3 Bft) 97,87 %
08.03.2019 14:00 10,8 C 12,2 C 10,6 C 66 % 1011,9 hPa 0,0 l/m 2 min 0 min 345 W/m 16,1 km/h (3 Bft) 97,87 %
08.03.2019 14:02 10,8 C 12,2 C 11,1 C 66 % 1011,8 hPa 0,0 l/m 2 min 0 min 345 W/m 9,7 km/h (2 Bft) 97,62 %
08.03.2019 14:04 10,8 C 12,8 C 11,1 C 66 % 1011,8 hPa 0,0 l/m 2 min 0 min 342 W/m 9,7 km/h (2 Bft) 97,87 %
08.03.2019 14:06 10,8 C 12,2 C 11,1 C 66 % 1011,8 hPa 0,0 l/m 2 min 0 min 328 W/m 16,1 km/h (3 Bft) 98,00 %
08.03.2019 14:08 10,8 C 12,8 C 11,1 C 67 % 1011,8 hPa 0,0 l/m 2 min 0 min 311 W/m 16,1 km/h (3 Bft) 93,75 %
08.03.2019 14:10 10,8 C 11,7 C 11,1 C 67 % 1011,8 hPa 0,0 l/m 2 min 0 min 293 W/m 19,3 km/h (3 Bft) 97,87 %
08.03.2019 14:12 10,8 C 11,7 C 10,6 C 66 % 1011,8 hPa 0,0 l/m 0 min 0 min 245 W/m 22,5 km/h (4 Bft) 97,87 %
08.03.2019 14:14 10,7 C 11,7 C 10,6 C 66 % 1011,8 hPa 0,0 l/m 0 min 0 min 231 W/m 16,1 km/h (3 Bft) 97,87 %
08.03.2019 14:16 10,7 C 11,7 C 10,6 C 67 % 1011,8 hPa 0,0 l/m 0 min 0 min 241 W/m 16,1 km/h (3 Bft) 97,56 %
08.03.2019 14:18 10,7 C 11,1 C 10,6 C 67 % 1011,8 hPa 0,0 l/m 0 min 0 min 247 W/m 29,0 km/h (5 Bft) 97,96 %
08.03.2019 14:20 10,6 C 11,1 C 10,0 C 67 % 1011,8 hPa 0,0 l/m 0 min 0 min 232 W/m 16,1 km/h (3 Bft) 97,96 %
08.03.2019 14:22 10,6 C 10,6 C 10,0 C 67 % 1011,9 hPa 0,0 l/m 0 min 0 min 206 W/m 12,9 km/h (3 Bft) 97,92 %
08.03.2019 14:24 10,6 C 11,7 C 10,0 C 66 % 1011,9 hPa 0,0 l/m 0 min 0 min 198 W/m 9,7 km/h (2 Bft) 97,87 %
08.03.2019 14:26 10,6 C 11,7 C 10,0 C 67 % 1011,8 hPa 0,0 l/m 0 min 0 min 203 W/m 19,3 km/h (3 Bft) 95,74 %
08.03.2019 14:28 10,5 C 11,7 C 10,0 C 66 % 1011,7 hPa 0,0 l/m 2 min 0 min 257 W/m 19,3 km/h (3 Bft) 100,00 %
08.03.2019 14:30 10,5 C 12,2 C 10,6 C 67 % 1011,9 hPa 0,0 l/m 2 min 0 min 326 W/m 16,1 km/h (3 Bft) 97,96 %
08.03.2019 14:32 10,5 C 12,2 C 10,6 C 67 % 1011,9 hPa 0,0 l/m 2 min 0 min 398 W/m 16,1 km/h (3 Bft) 100,00 %
08.03.2019 14:34 10,5 C 11,7 C 10,6 C 67 % 1011,9 hPa 0,0 l/m 0 min 0 min 239 W/m 12,9 km/h (3 Bft) 97,87 %
08.03.2019 14:36 10,5 C 11,1 C 10,6 C 66 % 1011,9 hPa 0,0 l/m 0 min 0 min 210 W/m 16,1 km/h (3 Bft) 97,87 %
08.03.2019 14:38 10,5 C 10,6 C 10,0 C 66 % 1011,9 hPa 0,0 l/m 0 min 0 min 182 W/m 9,7 km/h (2 Bft) 100,00 %
08.03.2019 14:40 10,4 C 10,6 C 10,0 C 66 % 1011,9 hPa 0,0 l/m 0 min 0 min 170 W/m 16,1 km/h (3 Bft) 100,00 %
08.03.2019 14:42 10,4 C 10,0 C 10,0 C 66 % 1012,0 hPa 0,0 l/m 0 min 0 min 172 W/m 19,3 km/h (3 Bft) 100,00 %
08.03.2019 14:44 10,4 C 10,0 C 10,0 C 65 % 1012,0 hPa 0,0 l/m 0 min 0 min 194 W/m 12,9 km/h (3 Bft) 100,00 %
08.03.2019 14:46 10,3 C 10,0 C 10,0 C 66 % 1011,9 hPa 0,0 l/m 0 min 0 min 203 W/m 16,1 km/h (3 Bft) 97,92 %
08.03.2019 14:48 10,3 C 10,6 C 10,0 C 66 % 1012,0 hPa 0,0 l/m 0 min 0 min 199 W/m 12,9 km/h (3 Bft) 97,92 %
08.03.2019 14:50 10,3 C 10,6 C 10,0 C 67 % 1012,0 hPa 0,0 l/m 0 min 0 min 204 W/m 12,9 km/h (3 Bft) 95,74 %
08.03.2019 14:52 10,3 C 10,6 C 10,0 C 67 % 1011,9 hPa 0,0 l/m 0 min 0 min 219 W/m 9,7 km/h (2 Bft) 97,87 %
08.03.2019 14:54 10,3 C 10,6 C 10,0 C 67 % 1011,9 hPa 0,0 l/m 2 min 0 min 232 W/m 9,7 km/h (2 Bft) 97,62 %
08.03.2019 14:56 10,3 C 10,6 C 10,0 C 67 % 1011,9 hPa 0,0 l/m 0 min 0 min 217 W/m 12,9 km/h (3 Bft) 97,92 %
08.03.2019 14:58 10,3 C 12,2 C 10,6 C 67 % 1011,9 hPa 0,0 l/m 2 min 0 min 235 W/m 9,7 km/h (2 Bft) 98,00 %
08.03.2019 15:00 10,3 C 12,2 C 10,6 C 67 % 1011,9 hPa 0,0 l/m 2 min 0 min 236 W/m 12,9 km/h (3 Bft) 97,87 %
08.03.2019 15:02 10,3 C 12,2 C 10,6 C 66 % 1012,0 hPa 0,0 l/m 2 min 0 min 234 W/m 12,9 km/h (3 Bft) 97,56 %
08.03.2019 15:04 10,4 C 11,7 C 10,6 C 66 % 1011,8 hPa 0,0 l/m 2 min 0 min 227 W/m 12,9 km/h (3 Bft) 95,74 %
08.03.2019 15:06 10,4 C 11,7 C 10,6 C 67 % 1011,8 hPa 0,0 l/m 0 min 0 min 188 W/m 16,1 km/h (3 Bft) 96,15 %
08.03.2019 15:08 10,4 C 10,6 C 10,0 C 66 % 1011,9 hPa 0,0 l/m 0 min 0 min 169 W/m 22,5 km/h (4 Bft) 97,73 %
08.03.2019 15:10 10,4 C 10,6 C 10,0 C 67 % 1011,8 hPa 0,0 l/m 0 min 0 min 182 W/m 12,9 km/h (3 Bft) 97,83 %
08.03.2019 15:12 10,4 C 10,6 C 10,0 C 67 % 1011,9 hPa 0,0 l/m 2 min 0 min 218 W/m 16,1 km/h (3 Bft) 97,96 %
08.03.2019 15:14 10,4 C 10,6 C 10,0 C 66 % 1011,9 hPa 0,0 l/m 2 min 0 min 235 W/m 25,7 km/h (4 Bft) 97,96 %
08.03.2019 15:16 10,3 C 10,6 C 10,0 C 66 % 1012,0 hPa 0,0 l/m 2 min 0 min 225 W/m 19,3 km/h (3 Bft) 97,92 %
08.03.2019 15:18 10,4 C 11,1 C 10,0 C 66 % 1012,0 hPa 0,0 l/m 2 min 0 min 226 W/m 19,3 km/h (3 Bft) 97,83 %
08.03.2019 15:20 10,3 C 10,6 C 10,0 C 66 % 1012,0 hPa 0,0 l/m 0 min 0 min 204 W/m 19,3 km/h (3 Bft) 97,87 %
08.03.2019 15:22 10,4 C 10,6 C 10,0 C 66 % 1011,9 hPa 0,0 l/m 0 min 0 min 204 W/m 19,3 km/h (3 Bft) 95,24 %
08.03.2019 15:24 10,4 C 11,1 C 10,0 C 66 % 1011,8 hPa 0,0 l/m 2 min 0 min 247 W/m 16,1 km/h (3 Bft) 91,84 %
08.03.2019 15:26 10,4 C 11,1 C 10,6 C 67 % 1011,9 hPa 0,0 l/m 2 min 0 min 205 W/m 19,3 km/h (3 Bft) 97,96 %
08.03.2019 15:28 10,4 C 10,6 C 10,0 C 66 % 1011,8 hPa 0,0 l/m 0 min 0 min 190 W/m 19,3 km/h (3 Bft) 97,92 %
08.03.2019 15:30 10,3 C 10,6 C 10,0 C 65 % 1011,9 hPa 0,0 l/m 0 min 0 min 161 W/m 19,3 km/h (3 Bft) 97,83 %
08.03.2019 15:32 10,3 C 10,0 C 10,0 C 66 % 1011,8 hPa 0,0 l/m 0 min 0 min 135 W/m 19,3 km/h (3 Bft) 97,56 %
08.03.2019 15:34 10,3 C 10,6 C 9,4 C 65 % 1011,8 hPa 0,0 l/m 0 min 0 min 157 W/m 12,9 km/h (3 Bft) 100,00 %
08.03.2019 15:36 10,3 C 10,6 C 10,0 C 65 % 1011,8 hPa 0,0 l/m 0 min 0 min 185 W/m 16,1 km/h (3 Bft) 97,96 %
08.03.2019 15:38 10,3 C 12,2 C 10,6 C 65 % 1011,7 hPa 0,0 l/m 2 min 0 min 231 W/m 9,7 km/h (2 Bft) 100,00 %
08.03.2019 15:40 10,4 C 12,2 C 10,6 C 67 % 1011,7 hPa 0,0 l/m 2 min 0 min 260 W/m 9,7 km/h (2 Bft) 97,92 %
08.03.2019 15:42 10,4 C 12,2 C 10,6 C 66 % 1011,7 hPa 0,0 l/m 2 min 0 min 262 W/m 22,5 km/h (4 Bft) 95,74 %
08.03.2019 15:44 10,4 C 12,2 C 10,6 C 66 % 1011,7 hPa 0,0 l/m 2 min 0 min 247 W/m 12,9 km/h (3 Bft) 97,87 %
08.03.2019 15:46 10,5 C 11,7 C 10,6 C 67 % 1011,7 hPa 0,0 l/m 0 min 0 min 179 W/m 19,3 km/h (3 Bft) 97,56 %
08.03.2019 15:48 10,5 C 11,7 C 10,0 C 67 % 1011,8 hPa 0,0 l/m 0 min 0 min 182 W/m 12,9 km/h (3 Bft) 97,96 %
08.03.2019 15:50 10,5 C 11,1 C 10,0 C 66 % 1011,8 hPa 0,0 l/m 2 min 0 min 190 W/m 19,3 km/h (3 Bft) 97,96 %
08.03.2019 15:52 10,5 C 11,1 C 10,0 C 65 % 1011,8 hPa 0,0 l/m 2 min 0 min 196 W/m 29,0 km/h (5 Bft) 95,83 %
08.03.2019 15:54 10,5 C 11,7 C 10,0 C 65 % 1011,8 hPa 0,0 l/m 2 min 0 min 259 W/m 12,9 km/h (3 Bft) 97,87 %
08.03.2019 15:56 10,5 C 11,1 C 10,0 C 65 % 1011,8 hPa 0,0 l/m 2 min 0 min 193 W/m 22,5 km/h (4 Bft) 97,87 %
08.03.2019 15:58 10,5 C 10,6 C 10,0 C 65 % 1011,8 hPa 0,0 l/m 0 min 0 min 166 W/m 16,1 km/h (3 Bft) 97,67 %
08.03.2019 16:00 10,5 C 10,6 C 10,0 C 65 % 1011,8 hPa 0,0 l/m 0 min 0 min 162 W/m 22,5 km/h (4 Bft) 98,04 %
08.03.2019 16:02 10,5 C 10,6 C 9,4 C 65 % 1011,8 hPa 0,0 l/m 0 min 0 min 151 W/m 16,1 km/h (3 Bft) 97,67 %
08.03.2019 16:04 10,4 C 10,6 C 9,4 C 65 % 1011,8 hPa 0,0 l/m 0 min 0 min 151 W/m 16,1 km/h (3 Bft) 97,87 %
08.03.2019 16:06 10,4 C 10,6 C 10,0 C 65 % 1011,9 hPa 0,0 l/m 0 min 0 min 153 W/m 9,7 km/h (2 Bft) 97,96 %
08.03.2019 16:08 10,4 C 10,0 C 9,4 C 65 % 1011,9 hPa 0,0 l/m 0 min 0 min 137 W/m 16,1 km/h (3 Bft) 97,92 %
08.03.2019 16:10 10,4 C 10,0 C 10,0 C 65 % 1011,9 hPa 0,0 l/m 0 min 0 min 125 W/m 6,4 km/h (2 Bft) 97,87 %
08.03.2019 16:12 10,4 C 10,0 C 9,4 C 65 % 1011,8 hPa 0,0 l/m 0 min 0 min 104 W/m 35,4 km/h (5 Bft) 97,87 %
08.03.2019 16:14 10,4 C 10,6 C 10,0 C 65 % 1011,9 hPa 0,0 l/m 0 min 0 min 102 W/m 22,5 km/h (4 Bft) 97,87 %
08.03.2019 16:16 10,4 C 10,6 C 10,0 C 65 % 1012,0 hPa 0,0 l/m 0 min 0 min 121 W/m 12,9 km/h (3 Bft) 97,62 %
08.03.2019 16:18 10,3 C 10,6 C 10,0 C 65 % 1011,8 hPa 0,0 l/m 0 min 0 min 141 W/m 9,7 km/h (2 Bft) 97,92 %
08.03.2019 16:20 10,4 C 10,6 C 10,0 C 65 % 1012,0 hPa 0,0 l/m 0 min 0 min 134 W/m 16,1 km/h (3 Bft) 97,96 %
08.03.2019 16:22 10,4 C 10,6 C 10,0 C 65 % 1011,9 hPa 0,0 l/m 0 min 0 min 115 W/m 25,7 km/h (4 Bft) 97,92 %
08.03.2019 16:24 10,3 C 10,6 C 10,0 C 65 % 1012,0 hPa 0,0 l/m 0 min 0 min 128 W/m 12,9 km/h (3 Bft) 97,87 %
08.03.2019 16:26 10,3 C 10,6 C 10,0 C 65 % 1011,9 hPa 0,0 l/m 2 min 0 min 149 W/m 19,3 km/h (3 Bft) 95,74 %
08.03.2019 16:28 10,3 C 10,6 C 10,0 C 65 % 1011,9 hPa 0,0 l/m 2 min 0 min 156 W/m 16,1 km/h (3 Bft) 100,00 %
08.03.2019 16:30 10,3 C 10,6 C 10,0 C 65 % 1011,9 hPa 0,0 l/m 2 min 0 min 144 W/m 12,9 km/h (3 Bft) 95,83 %
08.03.2019 16:32 10,4 C 10,6 C 10,0 C 65 % 1011,8 hPa 0,0 l/m 2 min 0 min 142 W/m 16,1 km/h (3 Bft) 98,00 %
08.03.2019 16:34 10,4 C 10,6 C 9,4 C 65 % 1011,9 hPa 0,0 l/m 0 min 0 min 118 W/m 25,7 km/h (4 Bft) 100,00 %
08.03.2019 16:36 10,4 C 10,6 C 9,4 C 65 % 1011,9 hPa 0,0 l/m 0 min 0 min 96 W/m 9,7 km/h (2 Bft) 100,00 %
08.03.2019 16:38 10,4 C 10,6 C 9,4 C 65 % 1011,9 hPa 0,0 l/m 2 min 0 min 153 W/m 19,3 km/h (3 Bft) 100,00 %
08.03.2019 16:40 10,4 C 11,1 C 10,0 C 66 % 1011,8 hPa 0,0 l/m 2 min 0 min 191 W/m 9,7 km/h (2 Bft) 97,87 %
08.03.2019 16:42 10,4 C 11,1 C 10,0 C 66 % 1011,9 hPa 0,0 l/m 2 min 0 min 187 W/m 16,1 km/h (3 Bft) 100,00 %
08.03.2019 16:44 10,4 C 11,1 C 10,0 C 66 % 1011,8 hPa 0,0 l/m 2 min 0 min 146 W/m 9,7 km/h (2 Bft) 95,92 %
08.03.2019 16:46 10,4 C 10,6 C 9,4 C 66 % 1011,8 hPa 0,0 l/m 2 min 0 min 121 W/m 9,7 km/h (2 Bft) 97,96 %
08.03.2019 16:48 10,4 C 10,6 C 9,4 C 66 % 1011,8 hPa 0,0 l/m 0 min 0 min 113 W/m 16,1 km/h (3 Bft) 97,96 %
08.03.2019 16:50 10,3 C 10,0 C 9,4 C 66 % 1011,8 hPa 0,0 l/m 0 min 0 min 106 W/m 16,1 km/h (3 Bft) 97,83 %
08.03.2019 16:52 10,3 C 10,0 C 9,4 C 66 % 1011,8 hPa 0,0 l/m 0 min 0 min 99 W/m 25,7 km/h (4 Bft) 97,87 %
08.03.2019 16:54 10,3 C 10,0 C 9,4 C 66 % 1011,8 hPa 0,0 l/m 0 min 0 min 95 W/m 22,5 km/h (4 Bft) 97,62 %
08.03.2019 16:56 10,3 C 10,0 C 9,4 C 65 % 1011,8 hPa 0,0 l/m 0 min 0 min 91 W/m 29,0 km/h (5 Bft) 97,92 %
08.03.2019 16:58 10,3 C 10,0 C 9,4 C 65 % 1011,8 hPa 0,0 l/m 0 min 0 min 88 W/m 12,9 km/h (3 Bft) 96,00 %
08.03.2019 17:00 10,3 C 10,0 C 9,4 C 66 % 1011,9 hPa 0,0 l/m 0 min 0 min 84 W/m 19,3 km/h (3 Bft) 97,87 %
08.03.2019 17:02 10,2 C 10,0 C 9,4 C 66 % 1011,8 hPa 0,0 l/m 0 min 0 min 82 W/m 16,1 km/h (3 Bft) 100,00 %
08.03.2019 17:04 10,2 C 10,0 C 9,4 C 67 % 1011,8 hPa 0,0 l/m 0 min 0 min 78 W/m 9,7 km/h (2 Bft) 97,87 %
08.03.2019 17:06 10,2 C 9,4 C 8,9 C 67 % 1011,7 hPa 0,0 l/m 0 min 0 min 73 W/m 19,3 km/h (3 Bft) 97,87 %
08.03.2019 17:08 10,2 C 9,4 C 8,9 C 67 % 1011,8 hPa 0,0 l/m 0 min 0 min 68 W/m 9,7 km/h (2 Bft) 97,62 %
08.03.2019 17:10 10,2 C 9,4 C 8,9 C 67 % 1011,8 hPa 0,0 l/m 0 min 0 min 62 W/m 12,9 km/h (3 Bft) 97,87 %
08.03.2019 17:12 10,2 C 9,4 C 8,9 C 67 % 1011,7 hPa 0,0 l/m 0 min 0 min 54 W/m 12,9 km/h (3 Bft) 97,96 %
08.03.2019 17:14 10,1 C 9,4 C 8,9 C 67 % 1011,8 hPa 0,0 l/m 0 min 0 min 49 W/m 9,7 km/h (2 Bft) 95,92 %
08.03.2019 17:16 10,1 C 9,4 C 8,9 C 67 % 1011,7 hPa 0,0 l/m 0 min 0 min 47 W/m 22,5 km/h (4 Bft) 97,87 %
08.03.2019 17:18 10,1 C 9,4 C 8,9 C 67 % 1011,7 hPa 0,0 l/m 0 min 0 min 47 W/m 19,3 km/h (3 Bft) 95,74 %
08.03.2019 17:20 10,1 C 9,4 C 8,9 C 67 % 1011,6 hPa 0,0 l/m 0 min 0 min 47 W/m 16,1 km/h (3 Bft) 95,74 %
08.03.2019 17:22 10,1 C 9,4 C 8,9 C 67 % 1011,6 hPa 0,0 l/m 0 min 0 min 47 W/m 16,1 km/h (3 Bft) 92,86 %
08.03.2019 17:24 10,0 C 9,4 C 8,9 C 67 % 1011,6 hPa 0,0 l/m 0 min 0 min 46 W/m 9,7 km/h (2 Bft) 95,92 %
08.03.2019 17:26 10,0 C 9,4 C 8,9 C 68 % 1011,6 hPa 0,0 l/m 0 min 0 min 44 W/m 9,7 km/h (2 Bft) 91,84 %
08.03.2019 17:28 10,0 C 9,4 C 8,9 C 68 % 1011,5 hPa 0,0 l/m 0 min 0 min 44 W/m 9,7 km/h (2 Bft) 95,74 %
08.03.2019 17:30 10,0 C 9,4 C 8,9 C 68 % 1011,5 hPa 0,0 l/m 0 min 0 min 42 W/m 9,7 km/h (2 Bft) 95,74 %
08.03.2019 17:32 9,9 C 9,4 C 8,9 C 68 % 1011,4 hPa 0,0 l/m 0 min 0 min 39 W/m 12,9 km/h (3 Bft) 95,35 %
08.03.2019 17:34 9,9 C 9,4 C 8,9 C 68 % 1011,4 hPa 0,0 l/m 0 min 0 min 36 W/m 12,9 km/h (3 Bft) 95,74 %
08.03.2019 17:36 9,9 C 9,4 C 8,9 C 68 % 1011,3 hPa 0,0 l/m 0 min 0 min 33 W/m 9,7 km/h (2 Bft) 93,88 %
08.03.2019 17:38 9,9 C 9,4 C 8,9 C 68 % 1011,3 hPa 0,0 l/m 0 min 0 min 30 W/m 12,9 km/h (3 Bft) 95,83 %
08.03.2019 17:40 9,9 C 9,4 C 8,9 C 68 % 1011,3 hPa 0,0 l/m 0 min 0 min 28 W/m 12,9 km/h (3 Bft) 95,74 %
08.03.2019 17:42 9,9 C 9,4 C 8,9 C 68 % 1011,2 hPa 0,0 l/m 0 min 0 min 26 W/m 16,1 km/h (3 Bft) 93,62 %
08.03.2019 17:44 9,9 C 9,4 C 8,9 C 68 % 1011,2 hPa 0,0 l/m 0 min 0 min 25 W/m 19,3 km/h (3 Bft) 95,74 %
08.03.2019 17:46 9,8 C 9,4 C 8,9 C 68 % 1011,2 hPa 0,0 l/m 0 min 0 min 24 W/m 16,1 km/h (3 Bft) 95,12 %
08.03.2019 17:48 9,8 C 9,4 C 8,9 C 68 % 1011,2 hPa 0,0 l/m 0 min 0 min 22 W/m 6,4 km/h (2 Bft) 95,92 %
08.03.2019 17:50 9,8 C 9,4 C 8,9 C 68 % 1011,3 hPa 0,0 l/m 0 min 0 min 19 W/m 12,9 km/h (3 Bft) 95,92 %
08.03.2019 17:52 9,8 C 9,4 C 8,9 C 68 % 1011,3 hPa 0,0 l/m 0 min 0 min 19 W/m 19,3 km/h (3 Bft) 95,83 %
08.03.2019 17:54 9,8 C 8,9 C 8,9 C 68 % 1011,3 hPa 0,0 l/m 0 min 0 min 17 W/m 12,9 km/h (3 Bft) 97,87 %
08.03.2019 17:56 9,8 C 8,9 C 8,3 C 68 % 1011,3 hPa 0,0 l/m 0 min 0 min 16 W/m 9,7 km/h (2 Bft) 97,87 %
08.03.2019 17:58 9,8 C 8,9 C 8,3 C 68 % 1011,3 hPa 0,0 l/m 0 min 0 min 14 W/m 16,1 km/h (3 Bft) 97,62 %
08.03.2019 18:00 9,8 C 8,9 C 8,3 C 69 % 1011,3 hPa 0,0 l/m 0 min 0 min 13 W/m 9,7 km/h (2 Bft) 97,87 %
08.03.2019 18:02 9,7 C 8,9 C 8,3 C 69 % 1011,3 hPa 0,0 l/m 0 min 0 min 12 W/m 19,3 km/h (3 Bft) 96,00 %
08.03.2019 18:04 9,7 C 8,9 C 8,3 C 69 % 1011,4 hPa 0,0 l/m 0 min 0 min 11 W/m 25,7 km/h (4 Bft) 97,83 %
08.03.2019 18:07 9,7 C 8,9 C 8,3 C 68 % 1011,4 hPa 0,0 l/m 0 min 0 min 12 W/m 19,3 km/h (3 Bft) 98,63 %
08.03.2019 18:08 9,7 C 8,9 C 8,3 C 68 % 1011,4 hPa 0,0 l/m 0 min 0 min 12 W/m 22,5 km/h (4 Bft) 100,00 %
08.03.2019 18:10 9,7 C 8,9 C 8,3 C 68 % 1011,4 hPa 0,0 l/m 0 min 0 min 11 W/m 12,9 km/h (3 Bft) 100,00 %
08.03.2019 18:12 9,7 C 8,9 C 8,3 C 69 % 1011,4 hPa 0,0 l/m 0 min 0 min 10 W/m 12,9 km/h (3 Bft) 100,00 %
08.03.2019 18:14 9,7 C 8,9 C 8,3 C 69 % 1011,5 hPa 0,0 l/m 0 min 0 min 7 W/m 12,9 km/h (3 Bft) 100,00 %
08.03.2019 18:16 9,7 C 8,9 C 8,3 C 69 % 1011,5 hPa 0,0 l/m 0 min 0 min 6 W/m 22,5 km/h (4 Bft) 97,92 %
08.03.2019 18:18 9,7 C 8,9 C 8,3 C 69 % 1011,6 hPa 0,0 l/m 0 min 0 min 1 W/m 19,3 km/h (3 Bft) 97,96 %
08.03.2019 18:20 9,7 C 8,9 C 8,3 C 69 % 1011,6 hPa 0,0 l/m 0 min 0 min 0 W/m 16,1 km/h (3 Bft) 100,00 %
08.03.2019 18:22 9,7 C 8,9 C 8,3 C 69 % 1011,7 hPa 0,0 l/m 0 min 0 min 0 W/m 9,7 km/h (2 Bft) 100,00 %
08.03.2019 18:24 9,6 C 8,9 C 8,3 C 69 % 1011,6 hPa 0,0 l/m 0 min 0 min 0 W/m 22,5 km/h (4 Bft) 100,00 %
08.03.2019 18:26 9,6 C 8,9 C 8,3 C 69 % 1011,8 hPa 0,0 l/m 0 min 0 min 0 W/m 19,3 km/h (3 Bft) 100,00 %
08.03.2019 18:28 9,6 C 8,9 C 8,3 C 70 % 1011,8 hPa 0,0 l/m 0 min 0 min 0 W/m 22,5 km/h (4 Bft) 100,00 %
08.03.2019 18:30 9,6 C 8,3 C 8,3 C 71 % 1011,8 hPa 0,0 l/m 0 min 0 min 0 W/m 38,6 km/h (5 Bft) 97,96 %
08.03.2019 18:32 9,6 C 8,3 C 7,8 C 71 % 1012,0 hPa 0,0 l/m 0 min 0 min 0 W/m 29,0 km/h (5 Bft) 100,00 %
08.03.2019 18:34 9,5 C 8,3 C 7,8 C 72 % 1011,9 hPa 0,0 l/m 0 min 0 min 0 W/m 32,2 km/h (5 Bft) 100,00 %
08.03.2019 18:36 9,4 C 8,3 C 7,8 C 73 % 1011,9 hPa 0,0 l/m 0 min 0 min 0 W/m 22,5 km/h (4 Bft) 97,56 %
08.03.2019 18:38 9,4 C 8,3 C 7,8 C 73 % 1012,0 hPa 0,0 l/m 0 min 0 min 0 W/m 25,7 km/h (4 Bft) 100,00 %
08.03.2019 18:40 9,3 C 7,8 C 7,8 C 73 % 1011,9 hPa 0,0 l/m 0 min 0 min 0 W/m 19,3 km/h (3 Bft) 100,00 %
08.03.2019 18:42 9,2 C 7,8 C 7,8 C 74 % 1011,9 hPa 0,0 l/m 0 min 0 min 0 W/m 25,7 km/h (4 Bft) 100,00 %
08.03.2019 18:44 9,2 C 7,8 C 7,8 C 74 % 1011,8 hPa 0,0 l/m 0 min 0 min 0 W/m 16,1 km/h (3 Bft) 100,00 %
08.03.2019 18:46 9,1 C 7,8 C 7,2 C 75 % 1011,8 hPa 0,0 l/m 0 min 0 min 0 W/m 12,9 km/h (3 Bft) 100,00 %
08.03.2019 18:48 9,0 C 7,8 C 7,2 C 75 % 1011,8 hPa 0,0 l/m 0 min 0 min 0 W/m 12,9 km/h (3 Bft) 100,00 %
08.03.2019 18:50 8,9 C 7,8 C 7,2 C 76 % 1011,9 hPa 0,0 l/m 0 min 0 min 0 W/m 29,0 km/h (5 Bft) 97,96 %
08.03.2019 18:52 8,9 C 7,8 C 7,2 C 76 % 1012,0 hPa 0,0 l/m 0 min 0 min 0 W/m 16,1 km/h (3 Bft) 100,00 %
08.03.2019 18:54 8,8 C 7,8 C 7,2 C 76 % 1011,9 hPa 0,0 l/m 0 min 0 min 0 W/m 22,5 km/h (4 Bft) 100,00 %
08.03.2019 18:56 8,8 C 7,8 C 7,2 C 77 % 1011,8 hPa 0,0 l/m 0 min 0 min 0 W/m 25,7 km/h (4 Bft) 100,00 %
08.03.2019 18:58 8,7 C 7,8 C 7,2 C 77 % 1011,9 hPa 0,0 l/m 0 min 0 min 0 W/m 16,1 km/h (3 Bft) 100,00 %
08.03.2019 19:00 8,7 C 7,8 C 7,2 C 77 % 1011,9 hPa 0,0 l/m 0 min 0 min 0 W/m 25,7 km/h (4 Bft) 100,00 %
08.03.2019 19:02 8,7 C 7,8 C 7,2 C 77 % 1011,8 hPa 0,0 l/m 0 min 0 min 0 W/m 19,3 km/h (3 Bft) 97,96 %
08.03.2019 19:04 8,6 C 7,8 C 7,2 C 78 % 1011,8 hPa 0,0 l/m 0 min 0 min 0 W/m 22,5 km/h (4 Bft) 97,87 %
08.03.2019 19:06 8,6 C 7,8 C 7,2 C 78 % 1011,8 hPa 0,0 l/m 0 min 0 min 0 W/m 9,7 km/h (2 Bft) 94,00 %
08.03.2019 19:08 8,6 C 7,8 C 7,2 C 78 % 1011,9 hPa 0,0 l/m 0 min 0 min 0 W/m 16,1 km/h (3 Bft) 97,87 %
08.03.2019 19:10 8,6 C 7,8 C 7,2 C 79 % 1011,8 hPa 0,0 l/m 0 min 0 min 0 W/m 22,5 km/h (4 Bft) 97,83 %
08.03.2019 19:12 8,6 C 7,8 C 7,2 C 79 % 1011,8 hPa 0,0 l/m 0 min 0 min 0 W/m 19,3 km/h (3 Bft) 95,74 %
08.03.2019 19:14 8,5 C 7,8 C 7,2 C 79 % 1011,9 hPa 0,0 l/m 0 min 0 min 0 W/m 19,3 km/h (3 Bft) 97,56 %
08.03.2019 19:16 8,5 C 7,8 C 7,2 C 79 % 1011,9 hPa 0,0 l/m 0 min 0 min 0 W/m 19,3 km/h (3 Bft) 97,96 %
08.03.2019 19:18 8,5 C 7,8 C 7,2 C 80 % 1011,8 hPa 0,0 l/m 0 min 0 min 0 W/m 22,5 km/h (4 Bft) 97,96 %
08.03.2019 19:20 8,5 C 7,8 C 7,2 C 80 % 1011,7 hPa 0,0 l/m 0 min 0 min 0 W/m 32,2 km/h (5 Bft) 97,96 %
08.03.2019 19:22 8,5 C 7,8 C 7,2 C 80 % 1011,8 hPa 0,0 l/m 0 min 0 min 0 W/m 19,3 km/h (3 Bft) 97,83 %
08.03.2019 19:24 8,5 C 7,8 C 7,2 C 80 % 1011,8 hPa 0,0 l/m 0 min 0 min 0 W/m 12,9 km/h (3 Bft) 97,87 %
08.03.2019 19:26 8,4 C 7,8 C 7,2 C 80 % 1011,9 hPa 0,0 l/m 0 min 0 min 0 W/m 22,5 km/h (4 Bft) 97,56 %
08.03.2019 19:28 8,4 C 7,8 C 7,2 C 81 % 1011,8 hPa 0,0 l/m 0 min 0 min 0 W/m 19,3 km/h (3 Bft) 95,92 %
08.03.2019 19:30 8,4 C 7,8 C 7,2 C 81 % 1011,9 hPa 0,0 l/m 0 min 0 min 0 W/m 25,7 km/h (4 Bft) 97,96 %
08.03.2019 19:32 8,4 C 7,8 C 7,2 C 81 % 1011,9 hPa 0,0 l/m 0 min 0 min 0 W/m 25,7 km/h (4 Bft) 95,92 %
08.03.2019 19:34 8,4 C 7,8 C 7,2 C 81 % 1011,8 hPa 0,0 l/m 0 min 0 min 0 W/m 16,1 km/h (3 Bft) 95,65 %
08.03.2019 19:36 8,4 C 7,8 C 7,2 C 81 % 1011,7 hPa 0,0 l/m 0 min 0 min 0 W/m 22,5 km/h (4 Bft) 95,74 %
08.03.2019 19:38 8,4 C 7,8 C 7,2 C 81 % 1011,7 hPa 0,0 l/m 0 min 0 min 0 W/m 12,9 km/h (3 Bft) 95,74 %
08.03.2019 19:40 8,4 C 7,8 C 7,2 C 81 % 1011,6 hPa 0,0 l/m 0 min 0 min 0 W/m 22,5 km/h (4 Bft) 97,87 %
08.03.2019 19:42 8,4 C 7,8 C 7,2 C 81 % 1011,6 hPa 0,0 l/m 0 min 0 min 0 W/m 19,3 km/h (3 Bft) 97,87 %
08.03.2019 19:44 8,4 C 7,8 C 7,2 C 81 % 1011,6 hPa 0,0 l/m 0 min 0 min 0 W/m 22,5 km/h (4 Bft) 95,24 %
08.03.2019 19:46 8,4 C 7,8 C 7,2 C 81 % 1011,6 hPa 0,0 l/m 0 min 0 min 0 W/m 25,7 km/h (4 Bft) 95,92 %
08.03.2019 19:48 8,4 C 7,8 C 7,2 C 81 % 1011,6 hPa 0,0 l/m 0 min 0 min 0 W/m 19,3 km/h (3 Bft) 95,83 %
08.03.2019 19:50 8,4 C 7,8 C 7,2 C 81 % 1011,6 hPa 0,0 l/m 0 min 0 min 0 W/m 19,3 km/h (3 Bft) 93,75 %
08.03.2019 19:52 8,4 C 7,8 C 7,2 C 81 % 1011,7 hPa 0,0 l/m 0 min 0 min 0 W/m 12,9 km/h (3 Bft) 93,62 %
08.03.2019 19:54 8,4 C 7,8 C 7,2 C 81 % 1011,6 hPa 0,0 l/m 0 min 0 min 0 W/m 19,3 km/h (3 Bft) 95,74 %
08.03.2019 19:56 8,4 C 7,8 C 7,2 C 81 % 1011,5 hPa 0,0 l/m 0 min 0 min 0 W/m 29,0 km/h (5 Bft) 97,62 %
08.03.2019 19:58 8,4 C 7,8 C 7,2 C 82 % 1011,5 hPa 0,0 l/m 0 min 0 min 0 W/m 25,7 km/h (4 Bft) 92,00 %
08.03.2019 20:00 8,4 C 7,8 C 7,2 C 82 % 1011,5 hPa 0,0 l/m 0 min 0 min 0 W/m 16,1 km/h (3 Bft) 95,65 %
08.03.2019 20:02 8,4 C 7,8 C 7,2 C 82 % 1011,6 hPa 0,0 l/m 0 min 0 min 0 W/m 22,5 km/h (4 Bft) 95,92 %
08.03.2019 20:04 8,4 C 7,8 C 7,2 C 82 % 1011,6 hPa 0,0 l/m 0 min 0 min 0 W/m 16,1 km/h (3 Bft) 97,87 %
08.03.2019 20:06 8,4 C 7,8 C 7,2 C 82 % 1011,7 hPa 0,0 l/m 0 min 0 min 0 W/m 19,3 km/h (3 Bft) 95,74 %
08.03.2019 20:08 8,4 C 7,8 C 7,2 C 82 % 1011,7 hPa 0,0 l/m 0 min 0 min 0 W/m 12,9 km/h (3 Bft) 95,12 %
08.03.2019 20:10 8,4 C 7,8 C 7,2 C 82 % 1011,6 hPa 0,0 l/m 0 min 0 min 0 W/m 22,5 km/h (4 Bft) 93,88 %
08.03.2019 20:12 8,4 C 7,8 C 7,2 C 82 % 1011,7 hPa 0,0 l/m 0 min 0 min 0 W/m 22,5 km/h (4 Bft) 95,83 %
08.03.2019 20:14 8,4 C 7,8 C 7,2 C 82 % 1011,7 hPa 0,0 l/m 0 min 0 min 0 W/m 19,3 km/h (3 Bft) 95,92 %
08.03.2019 20:16 8,4 C 7,8 C 7,2 C 82 % 1011,7 hPa 0,0 l/m 0 min 0 min 0 W/m 12,9 km/h (3 Bft) 95,74 %
08.03.2019 20:18 8,4 C 7,8 C 7,2 C 82 % 1011,7 hPa 0,0 l/m 0 min 0 min 0 W/m 22,5 km/h (4 Bft) 92,86 %
08.03.2019 20:20 8,4 C 7,8 C 7,2 C 82 % 1011,7 hPa 0,0 l/m 0 min 0 min 0 W/m 22,5 km/h (4 Bft) 93,88 %
08.03.2019 20:22 8,4 C 7,8 C 7,2 C 82 % 1011,7 hPa 0,0 l/m 0 min 0 min 0 W/m 19,3 km/h (3 Bft) 95,92 %
08.03.2019 20:24 8,4 C 7,8 C 7,2 C 82 % 1011,6 hPa 0,0 l/m 0 min 0 min 0 W/m 22,5 km/h (4 Bft) 93,62 %
08.03.2019 20:26 8,4 C 7,8 C 7,2 C 82 % 1011,6 hPa 0,0 l/m 0 min 0 min 0 W/m 32,2 km/h (5 Bft) 95,74 %
08.03.2019 20:28 8,4 C 7,8 C 7,2 C 82 % 1011,6 hPa 0,0 l/m 0 min 0 min 0 W/m 32,2 km/h (5 Bft) 89,36 %
08.03.2019 20:30 8,5 C 7,8 C 7,2 C 82 % 1011,6 hPa 0,0 l/m 0 min 0 min 0 W/m 22,5 km/h (4 Bft) 97,62 %
08.03.2019 20:32 8,5 C 7,8 C 7,2 C 82 % 1011,5 hPa 0,0 l/m 0 min 0 min 0 W/m 22,5 km/h (4 Bft) 96,00 %
08.03.2019 20:34 8,5 C 7,8 C 7,8 C 82 % 1011,5 hPa 0,0 l/m 0 min 0 min 0 W/m 22,5 km/h (4 Bft) 97,92 %
08.03.2019 20:36 8,5 C 7,8 C 7,2 C 81 % 1011,5 hPa 0,0 l/m 0 min 0 min 0 W/m 19,3 km/h (3 Bft) 93,62 %
08.03.2019 20:38 8,5 C 7,8 C 7,2 C 81 % 1011,4 hPa 0,0 l/m 0 min 0 min 0 W/m 16,1 km/h (3 Bft) 97,87 %
08.03.2019 20:40 8,5 C 7,8 C 7,2 C 81 % 1011,4 hPa 0,0 l/m 0 min 0 min 0 W/m 22,5 km/h (4 Bft) 97,56 %
08.03.2019 20:42 8,6 C 7,8 C 7,8 C 81 % 1011,4 hPa 0,0 l/m 0 min 0 min 0 W/m 19,3 km/h (3 Bft) 97,96 %
08.03.2019 20:44 8,6 C 8,3 C 7,8 C 81 % 1011,4 hPa 0,0 l/m 0 min 0 min 0 W/m 16,1 km/h (3 Bft) 100,00 %
08.03.2019 20:46 8,6 C 7,8 C 7,8 C 81 % 1011,4 hPa 0,0 l/m 0 min 0 min 0 W/m 16,1 km/h (3 Bft) 97,92 %
08.03.2019 20:48 8,6 C 8,3 C 7,8 C 81 % 1011,4 hPa 0,0 l/m 0 min 0 min 0 W/m 19,3 km/h (3 Bft) 97,87 %
08.03.2019 20:50 8,6 C 8,3 C 7,8 C 81 % 1011,4 hPa 0,0 l/m 0 min 0 min 0 W/m 29,0 km/h (5 Bft) 97,87 %
08.03.2019 20:52 8,6 C 7,8 C 7,8 C 81 % 1011,4 hPa 0,0 l/m 0 min 0 min 0 W/m 19,3 km/h (3 Bft) 97,56 %
08.03.2019 20:54 8,6 C 7,8 C 7,8 C 81 % 1011,3 hPa 0,0 l/m 0 min 0 min 0 W/m 16,1 km/h (3 Bft) 95,92 %
08.03.2019 20:56 8,6 C 8,3 C 7,8 C 81 % 1011,3 hPa 0,0 l/m 0 min 0 min 0 W/m 22,5 km/h (4 Bft) 100,00 %
08.03.2019 20:58 8,6 C 7,8 C 7,8 C 81 % 1011,3 hPa 0,0 l/m 0 min 0 min 0 W/m 16,1 km/h (3 Bft) 97,92 %
08.03.2019 21:00 8,6 C 7,8 C 7,8 C 81 % 1011,3 hPa 0,0 l/m 0 min 0 min 0 W/m 12,9 km/h (3 Bft) 100,00 %
08.03.2019 21:02 8,6 C 7,8 C 7,2 C 81 % 1011,3 hPa 0,0 l/m 0 min 0 min 0 W/m 16,1 km/h (3 Bft) 97,87 %
08.03.2019 21:04 8,6 C 7,8 C 7,2 C 81 % 1011,2 hPa 0,0 l/m 0 min 0 min 0 W/m 16,1 km/h (3 Bft) 97,87 %
08.03.2019 21:06 8,6 C 7,8 C 7,2 C 81 % 1011,2 hPa 0,0 l/m 0 min 0 min 0 W/m 16,1 km/h (3 Bft) 97,62 %
08.03.2019 21:08 8,6 C 7,8 C 7,2 C 81 % 1011,3 hPa 0,0 l/m 0 min 0 min 0 W/m 16,1 km/h (3 Bft) 97,96 %
08.03.2019 21:10 8,6 C 7,8 C 7,2 C 81 % 1011,3 hPa 0,0 l/m 0 min 0 min 0 W/m 19,3 km/h (3 Bft) 100,00 %
08.03.2019 21:12 8,6 C 7,8 C 7,2 C 81 % 1011,2 hPa 0,0 l/m 0 min 0 min 0 W/m 16,1 km/h (3 Bft) 100,00 %
08.03.2019 21:14 8,6 C 7,8 C 7,2 C 81 % 1011,2 hPa 0,0 l/m 0 min 0 min 0 W/m 12,9 km/h (3 Bft) 100,00 %
08.03.2019 21:16 8,6 C 7,8 C 7,2 C 81 % 1011,2 hPa 0,0 l/m 0 min 0 min 0 W/m 9,7 km/h (2 Bft) 100,00 %
08.03.2019 21:18 8,6 C 7,8 C 7,2 C 81 % 1011,1 hPa 0,0 l/m 0 min 0 min 0 W/m 12,9 km/h (3 Bft) 100,00 %
08.03.2019 21:20 8,6 C 7,8 C 7,2 C 81 % 1011,1 hPa 0,0 l/m 0 min 0 min 0 W/m 16,1 km/h (3 Bft) 100,00 %
08.03.2019 21:22 8,6 C 7,8 C 7,2 C 81 % 1011,1 hPa 0,0 l/m 0 min 0 min 0 W/m 19,3 km/h (3 Bft) 100,00 %
08.03.2019 21:24 8,5 C 7,8 C 7,2 C 81 % 1011,1 hPa 0,0 l/m 0 min 0 min 0 W/m 19,3 km/h (3 Bft) 100,00 %
08.03.2019 21:26 8,5 C 7,8 C 7,2 C 81 % 1011,1 hPa 0,0 l/m 0 min 0 min 0 W/m 16,1 km/h (3 Bft) 100,00 %
08.03.2019 21:28 8,5 C 7,8 C 7,2 C 81 % 1011,0 hPa 0,0 l/m 0 min 0 min 0 W/m 25,7 km/h (4 Bft) 100,00 %
08.03.2019 21:30 8,4 C 7,8 C 7,2 C 82 % 1011,0 hPa 0,0 l/m 0 min 0 min 0 W/m 19,3 km/h (3 Bft) 97,62 %
08.03.2019 21:32 8,4 C 7,8 C 7,2 C 82 % 1011,1 hPa 0,0 l/m 0 min 0 min 0 W/m 16,1 km/h (3 Bft) 100,00 %
08.03.2019 21:34 8,4 C 7,8 C 7,2 C 82 % 1011,0 hPa 0,0 l/m 0 min 0 min 0 W/m 29,0 km/h (5 Bft) 93,75 %
08.03.2019 21:36 8,4 C 7,8 C 7,2 C 82 % 1010,9 hPa 0,0 l/m 0 min 0 min 0 W/m 22,5 km/h (4 Bft) 100,00 %
08.03.2019 21:38 8,4 C 7,8 C 7,2 C 82 % 1010,9 hPa 0,0 l/m 0 min 0 min 0 W/m 16,1 km/h (3 Bft) 100,00 %
08.03.2019 21:40 8,4 C 7,8 C 7,2 C 82 % 1010,9 hPa 0,0 l/m 0 min 0 min 0 W/m 9,7 km/h (2 Bft) 100,00 %
08.03.2019 21:42 8,4 C 7,8 C 7,2 C 82 % 1010,9 hPa 0,0 l/m 0 min 0 min 0 W/m 19,3 km/h (3 Bft) 100,00 %
08.03.2019 21:44 8,3 C 7,8 C 7,2 C 82 % 1010,9 hPa 0,0 l/m 0 min 0 min 0 W/m 16,1 km/h (3 Bft) 100,00 %
08.03.2019 21:46 8,3 C 7,8 C 7,2 C 82 % 1010,8 hPa 0,0 l/m 0 min 0 min 0 W/m 19,3 km/h (3 Bft) 100,00 %
08.03.2019 21:48 8,3 C 7,8 C 7,2 C 82 % 1010,8 hPa 0,0 l/m 0 min 0 min 0 W/m 12,9 km/h (3 Bft) 100,00 %
08.03.2019 21:50 8,3 C 7,8 C 7,2 C 82 % 1010,8 hPa 0,0 l/m 0 min 0 min 0 W/m 16,1 km/h (3 Bft) 100,00 %
08.03.2019 21:52 8,3 C 7,2 C 7,2 C 82 % 1010,7 hPa 0,0 l/m 0 min 0 min 0 W/m 12,9 km/h (3 Bft) 100,00 %
08.03.2019 21:54 8,3 C 7,2 C 7,2 C 82 % 1010,7 hPa 0,0 l/m 0 min 0 min 0 W/m 19,3 km/h (3 Bft) 100,00 %
08.03.2019 21:56 8,3 C 7,2 C 7,2 C 82 % 1010,6 hPa 0,0 l/m 0 min 0 min 0 W/m 12,9 km/h (3 Bft) 100,00 %
08.03.2019 21:58 8,2 C 7,2 C 7,2 C 82 % 1010,6 hPa 0,0 l/m 0 min 0 min 0 W/m 12,9 km/h (3 Bft) 97,96 %
08.03.2019 22:00 8,2 C 7,2 C 7,2 C 82 % 1010,6 hPa 0,0 l/m 0 min 0 min 0 W/m 12,9 km/h (3 Bft) 97,87 %
08.03.2019 22:02 8,2 C 7,8 C 7,2 C 82 % 1010,6 hPa 0,0 l/m 0 min 0 min 0 W/m 12,9 km/h (3 Bft) 100,00 %
08.03.2019 22:04 8,2 C 7,8 C 7,2 C 82 % 1010,5 hPa 0,0 l/m 0 min 0 min 0 W/m 22,5 km/h (4 Bft) 100,00 %
08.03.2019 22:06 8,2 C 7,8 C 7,2 C 82 % 1010,5 hPa 0,0 l/m 0 min 0 min 0 W/m 16,1 km/h (3 Bft) 100,00 %
08.03.2019 22:08 8,2 C 7,2 C 7,2 C 82 % 1010,6 hPa 0,0 l/m 0 min 0 min 0 W/m 12,9 km/h (3 Bft) 100,00 %
08.03.2019 22:10 8,2 C 7,2 C 6,7 C 82 % 1010,5 hPa 0,0 l/m 0 min 0 min 0 W/m 16,1 km/h (3 Bft) 100,00 %
08.03.2019 22:12 8,2 C 7,2 C 6,7 C 82 % 1010,4 hPa 0,0 l/m 0 min 0 min 0 W/m 12,9 km/h (3 Bft) 97,96 %
08.03.2019 22:14 8,1 C 7,2 C 6,7 C 82 % 1010,5 hPa 0,0 l/m 0 min 0 min 0 W/m 16,1 km/h (3 Bft) 97,87 %
08.03.2019 22:16 8,1 C 7,2 C 6,7 C 82 % 1010,6 hPa 0,0 l/m 0 min 0 min 0 W/m 19,3 km/h (3 Bft) 100,00 %
08.03.2019 22:18 8,1 C 7,2 C 6,7 C 82 % 1010,6 hPa 0,0 l/m 0 min 0 min 0 W/m 19,3 km/h (3 Bft) 97,92 %
08.03.2019 22:20 8,1 C 7,2 C 6,7 C 82 % 1010,6 hPa 0,0 l/m 0 min 0 min 0 W/m 12,9 km/h (3 Bft) 95,74 %
08.03.2019 22:22 8,1 C 7,2 C 6,7 C 82 % 1010,5 hPa 0,0 l/m 0 min 0 min 0 W/m 12,9 km/h (3 Bft) 100,00 %
08.03.2019 22:24 8,1 C 7,2 C 6,7 C 82 % 1010,5 hPa 0,0 l/m 0 min 0 min 0 W/m 9,7 km/h (2 Bft) 100,00 %
08.03.2019 22:26 8,1 C 7,2 C 6,7 C 82 % 1010,4 hPa 0,0 l/m 0 min 0 min 0 W/m 12,9 km/h (3 Bft) 100,00 %
08.03.2019 22:28 8,0 C 7,2 C 6,7 C 82 % 1010,4 hPa 0,0 l/m 0 min 0 min 0 W/m 19,3 km/h (3 Bft) 97,96 %
08.03.2019 22:30 8,0 C 7,2 C 6,7 C 82 % 1010,3 hPa 0,0 l/m 0 min 0 min 0 W/m 16,1 km/h (3 Bft) 97,92 %
08.03.2019 22:32 8,0 C 7,2 C 6,7 C 82 % 1010,2 hPa 0,0 l/m 0 min 0 min 0 W/m 12,9 km/h (3 Bft) 95,74 %
08.03.2019 22:34 7,9 C 7,2 C 6,7 C 82 % 1010,3 hPa 0,0 l/m 0 min 0 min 0 W/m 6,4 km/h (2 Bft) 97,87 %
08.03.2019 22:36 7,9 C 7,2 C 6,7 C 82 % 1010,2 hPa 0,0 l/m 0 min 0 min 0 W/m 16,1 km/h (3 Bft) 95,24 %
08.03.2019 22:38 7,9 C 7,2 C 6,7 C 82 % 1010,2 hPa 0,0 l/m 0 min 0 min 0 W/m 12,9 km/h (3 Bft) 95,92 %
08.03.2019 22:40 7,9 C 7,2 C 6,7 C 82 % 1010,2 hPa 0,0 l/m 0 min 0 min 0 W/m 19,3 km/h (3 Bft) 97,96 %
08.03.2019 22:42 7,9 C 7,2 C 6,7 C 82 % 1010,2 hPa 0,0 l/m 0 min 0 min 0 W/m 19,3 km/h (3 Bft) 95,74 %
08.03.2019 22:44 7,9 C 7,2 C 6,7 C 82 % 1010,2 hPa 0,0 l/m 0 min 0 min 0 W/m 16,1 km/h (3 Bft) 97,87 %
08.03.2019 22:46 7,9 C 7,2 C 6,7 C 82 % 1010,2 hPa 0,0 l/m 0 min 0 min 0 W/m 16,1 km/h (3 Bft) 93,62 %
08.03.2019 22:48 7,9 C 7,2 C 6,7 C 82 % 1010,1 hPa 0,0 l/m 0 min 0 min 0 W/m 16,1 km/h (3 Bft) 95,74 %
08.03.2019 22:50 7,9 C 7,2 C 6,7 C 82 % 1010,1 hPa 0,0 l/m 0 min 0 min 0 W/m 19,3 km/h (3 Bft) 95,74 %
08.03.2019 22:52 7,9 C 7,2 C 6,7 C 82 % 1010,1 hPa 0,0 l/m 0 min 0 min 0 W/m 16,1 km/h (3 Bft) 95,65 %
08.03.2019 22:54 7,9 C 7,2 C 6,7 C 82 % 1010,0 hPa 0,0 l/m 0 min 0 min 0 W/m 22,5 km/h (4 Bft) 93,62 %
08.03.2019 22:56 7,9 C 7,2 C 6,7 C 82 % 1010,0 hPa 0,0 l/m 0 min 0 min 0 W/m 19,3 km/h (3 Bft) 93,62 %
08.03.2019 22:58 7,9 C 7,2 C 7,2 C 81 % 1010,0 hPa 0,0 l/m 0 min 0 min 0 W/m 12,9 km/h (3 Bft) 93,62 %
08.03.2019 23:00 7,9 C 7,8 C 7,2 C 81 % 1009,9 hPa 0,0 l/m 0 min 0 min 0 W/m 35,4 km/h (5 Bft) 93,62 %
08.03.2019 23:02 7,9 C 7,8 C 7,2 C 81 % 1009,9 hPa 0,0 l/m 0 min 0 min 0 W/m 35,4 km/h (5 Bft) 95,74 %
08.03.2019 23:04 7,9 C 7,8 C 7,2 C 81 % 1009,9 hPa 0,0 l/m 0 min 0 min 0 W/m 19,3 km/h (3 Bft) 93,48 %
08.03.2019 23:06 7,9 C 7,8 C 7,2 C 81 % 1009,9 hPa 0,0 l/m 0 min 0 min 0 W/m 16,1 km/h (3 Bft) 95,74 %
08.03.2019 23:08 8,0 C 7,8 C 7,2 C 81 % 1009,8 hPa 0,0 l/m 0 min 0 min 0 W/m 22,5 km/h (4 Bft) 95,74 %
08.03.2019 23:10 8,0 C 7,8 C 7,2 C 81 % 1009,8 hPa 0,0 l/m 0 min 2 min 0 W/m 22,5 km/h (4 Bft) 89,36 %
08.03.2019 23:12 8,1 C 7,2 C 6,7 C 81 % 1009,8 hPa 0,0 l/m 0 min 2 min 0 W/m 22,5 km/h (4 Bft) 91,49 %
08.03.2019 23:14 8,1 C 6,7 C 6,1 C 81 % 1009,8 hPa 0,0 l/m 0 min 2 min 0 W/m 22,5 km/h (4 Bft) 91,49 %
08.03.2019 23:16 8,1 C 6,7 C 6,1 C 81 % 1009,7 hPa 0,0 l/m 0 min 2 min 0 W/m 16,1 km/h (3 Bft) 95,65 %
08.03.2019 23:18 8,1 C 6,7 C 6,1 C 81 % 1009,4 hPa 0,0 l/m 0 min 2 min 0 W/m 16,1 km/h (3 Bft) 95,24 %
08.03.2019 23:20 8,1 C 6,7 C 6,1 C 81 % 1009,5 hPa 0,0 l/m 0 min 2 min 0 W/m 19,3 km/h (3 Bft) 95,74 %
08.03.2019 23:22 8,1 C 6,7 C 6,1 C 82 % 1009,4 hPa 0,0 l/m 0 min 2 min 0 W/m 22,5 km/h (4 Bft) 95,74 %
08.03.2019 23:24 8,1 C 6,7 C 6,1 C 82 % 1009,4 hPa 0,0 l/m 0 min 2 min 0 W/m 9,7 km/h (2 Bft) 95,74 %
08.03.2019 23:26 8,1 C 6,7 C 6,7 C 82 % 1009,4 hPa 0,0 l/m 0 min 0 min 0 W/m 12,9 km/h (3 Bft) 93,62 %
08.03.2019 23:28 8,1 C 7,2 C 6,7 C 82 % 1009,5 hPa 0,0 l/m 0 min 2 min 0 W/m 32,2 km/h (5 Bft) 95,74 %
08.03.2019 23:30 8,1 C 7,2 C 6,7 C 82 % 1009,5 hPa 0,0 l/m 0 min 2 min 0 W/m 35,4 km/h (5 Bft) 93,48 %
08.03.2019 23:32 8,1 C 7,8 C 7,2 C 81 % 1009,3 hPa 0,0 l/m 0 min 2 min 0 W/m 35,4 km/h (5 Bft) 97,87 %
08.03.2019 23:34 8,1 C 7,8 C 7,2 C 81 % 1009,5 hPa 0,0 l/m 0 min 2 min 0 W/m 32,2 km/h (5 Bft) 95,74 %
08.03.2019 23:36 8,1 C 7,8 C 7,2 C 81 % 1009,4 hPa 0,0 l/m 0 min 2 min 0 W/m 29,0 km/h (5 Bft) 95,74 %
08.03.2019 23:38 8,2 C 7,8 C 7,2 C 80 % 1009,5 hPa 0,0 l/m 0 min 2 min 0 W/m 35,4 km/h (5 Bft) 95,74 %
08.03.2019 23:40 8,2 C 7,8 C 7,2 C 80 % 1009,5 hPa 0,0 l/m 0 min 2 min 0 W/m 22,5 km/h (4 Bft) 95,74 %
08.03.2019 23:42 8,2 C 7,8 C 7,2 C 80 % 1009,5 hPa 0,0 l/m 0 min 2 min 0 W/m 25,7 km/h (4 Bft) 95,65 %
08.03.2019 23:44 8,2 C 7,8 C 6,7 C 80 % 1009,3 hPa 0,0 l/m 0 min 2 min 0 W/m 19,3 km/h (3 Bft) 97,87 %
08.03.2019 23:46 8,3 C 7,2 C 6,7 C 79 % 1009,2 hPa 0,0 l/m 0 min 2 min 0 W/m 22,5 km/h (4 Bft) 97,87 %
08.03.2019 23:48 8,3 C 7,2 C 6,7 C 79 % 1009,2 hPa 0,0 l/m 0 min 2 min 0 W/m 32,2 km/h (5 Bft) 93,62 %
08.03.2019 23:50 8,3 C 7,8 C 6,7 C 79 % 1008,9 hPa 0,0 l/m 0 min 2 min 0 W/m 22,5 km/h (4 Bft) 100,00 %
08.03.2019 23:52 8,3 C 7,2 C 6,7 C 79 % 1009,0 hPa 0,0 l/m 0 min 2 min 0 W/m 19,3 km/h (3 Bft) 95,74 %
08.03.2019 23:54 8,3 C 7,2 C 7,2 C 79 % 1009,1 hPa 0,0 l/m 0 min 2 min 0 W/m 32,2 km/h (5 Bft) 97,83 %
08.03.2019 23:56 8,3 C 7,8 C 6,7 C 79 % 1009,2 hPa 0,0 l/m 0 min 2 min 0 W/m 32,2 km/h (5 Bft) 100,00 %
08.03.2019 23:58 8,3 C 7,8 C 6,7 C 79 % 1009,2 hPa 0,0 l/m 0 min 2 min 0 W/m 25,7 km/h (4 Bft) 100,00 %
_ Min-Zeit 06:52 04:34 03:54 12:42 00:12 - - - - 07:20 00:02
Minimum _ 5,8 C 4,4 C 4,4 C 65 % 998,1 hPa - - - - 0,0 km/h (0 Bft) 5,00 %
_ Max-Zeit 12:36 12:04 13:26 04:54 13:22 02:26 11:26 05:10 12:08 00:24 01:02
Maximum _ 10,9 C 17,2 C 15,0 C 93 % 1012,0 hPa 0,2 l/m 4 min 5 min 775 W/m 54,7 km/h
SO (7 Bft)
100,00 %
Durchschnitt _ 8,3 C 8,1 C 7,3 C 80 % 1007,8 hPa #1,6 l/m #4:04 h #5:28 h 203 W/m 17,9 km/h (3 Bft) 97,18 %
© 2019 W. Hausmann